NOAA Web Site Link Tides and Currents Home Page Transparent placeholder image

PORTS® Data Listing: 9410670 Los Angeles Pier F, CA

CO-OPS RAW PORTS DATA

************************      PRELIMINARY DATA      ************************** 

     THIS RAW DATA HAS NOT BEEN SUBJECT TO THE NATIONAL OCEAN SERVICE'S        
     QUALITY CONTROL OR QUALITY ASSURANCE PROCEDURES AND DOES NOT MEET         
     THE CRITERIA AND STANDARDS OF OFFICIAL NATIONAL OCEAN SERVICE             
     DATA.  IT IS RELEASED FOR LIMITED PUBLIC USE AS PRELIMINARY DATA TO       
     BE USED ONLY WITH APPROPRIATE CAUTION.                                    

************************      PRELIMINARY DATA      ************************** 


       CD   -   Calendar date
       T    -   Time
       TZ   -   Timezone
       PW   -   Predicted water level (feet above MLLW)
       OW   -   Observed water level (feet above MLLW)
       WS   -   Wind speed (knots)
       WD   -   Wind direction (degrees true)
       WG   -   Wind gust (knots)
       AT   -   Air temperature (degrees farenheit)
       WT   -   Water temperature (degrees farenheit)
       AP   -   Air pressure (millibars)
       SA   -   Salinty (PSU - Practical Salinity Units)
       SG   -   Specific gravity
       RH   -   Relative humidity
       AG   -   Air gap (feet)
       VI   -   Visibility (nautical miles)

       ** NOTE **
       A variable that has its data fields filled with "9"s, indicates that
       data was not collected for that sample period.
       **********


STATION NAME: Pier F (9410670)
****************************************************************************************************
    CD       T    TZ    PW     OW    WS   WD   WG    AT    WT    AP    SA    SG     RH    AG   VI
****************************************************************************************************
2019/08/15 08:54 PDT  -99.99 -99.99    4  192    5 -99.9 -99.9 -999.9 -9.9 -9.999 -99.9 -99.99 -9.99
2019/08/15 09:00 PDT  -99.99 -99.99    4  200    5 -99.9 -99.9 -999.9 -9.9 -9.999 -99.9 -99.99 -9.99
2019/08/15 09:06 PDT  -99.99 -99.99    4  192    4 -99.9 -99.9 -999.9 -9.9 -9.999 -99.9 -99.99 -9.99
2019/08/15 09:12 PDT  -99.99 -99.99    4  200    5 -99.9 -99.9 -999.9 -9.9 -9.999 -99.9 -99.99 -9.99
2019/08/15 09:18 PDT  -99.99 -99.99    5  209    5 -99.9 -99.9 -999.9 -9.9 -9.999 -99.9 -99.99 -9.99
2019/08/15 09:24 PDT  -99.99 -99.99    7  197    7 -99.9 -99.9 -999.9 -9.9 -9.999 -99.9 -99.99 -9.99
2019/08/15 09:30 PDT  -99.99 -99.99    7  201    8 -99.9 -99.9 -999.9 -9.9 -9.999 -99.9 -99.99 -9.99
2019/08/15 09:36 PDT  -99.99 -99.99    8  184    9 -99.9 -99.9 -999.9 -9.9 -9.999 -99.9 -99.99 -9.99
2019/08/15 09:42 PDT  -99.99 -99.99    8  197    9 -99.9 -99.9 -999.9 -9.9 -9.999 -99.9 -99.99 -9.99
2019/08/15 09:48 PDT  -99.99 -99.99    8  211    9 -99.9 -99.9 -999.9 -9.9 -9.999 -99.9 -99.99 -9.99
2019/08/15 09:54 PDT  -99.99 -99.99    7  209    8 -99.9 -99.9 -999.9 -9.9 -9.999 -99.9 -99.99 -9.99
2019/08/15 10:00 PDT  -99.99 -99.99    8  218    9 -99.9 -99.9 -999.9 -9.9 -9.999 -99.9 -99.99 -9.99
2019/08/15 10:06 PDT  -99.99 -99.99    8  213    9 -99.9 -99.9 -999.9 -9.9 -9.999 -99.9 -99.99 -9.99
2019/08/15 10:12 PDT  -99.99 -99.99    7  214    8 -99.9 -99.9 -999.9 -9.9 -9.999 -99.9 -99.99 -9.99
2019/08/15 10:18 PDT  -99.99 -99.99    6  220    7 -99.9 -99.9 -999.9 -9.9 -9.999 -99.9 -99.99 -9.99
2019/08/15 10:24 PDT  -99.99 -99.99    7  216    8 -99.9 -99.9 -999.9 -9.9 -9.999 -99.9 -99.99 -9.99
2019/08/15 10:30 PDT  -99.99 -99.99    6  209    8 -99.9 -99.9 -999.9 -9.9 -9.999 -99.9 -99.99 -9.99
2019/08/15 10:36 PDT  -99.99 -99.99    7  199    7 -99.9 -99.9 -999.9 -9.9 -9.999 -99.9 -99.99 -9.99
2019/08/15 10:42 PDT  -99.99 -99.99    6  193    7 -99.9 -99.9 -999.9 -9.9 -9.999 -99.9 -99.99 -9.99
2019/08/15 10:48 PDT  -99.99 -99.99    7  199    8 -99.9 -99.9 -999.9 -9.9 -9.999 -99.9 -99.99 -9.99
2019/08/15 10:54 PDT  -99.99 -99.99    7  202    8 -99.9 -99.9 -999.9 -9.9 -9.999 -99.9 -99.99 -9.99
2019/08/15 11:00 PDT  -99.99 -99.99    6  206    7 -99.9 -99.9 -999.9 -9.9 -9.999 -99.9 -99.99 -9.99
2019/08/15 11:06 PDT  -99.99 -99.99    7  205    8 -99.9 -99.9 -999.9 -9.9 -9.999 -99.9 -99.99 -9.99
2019/08/15 11:12 PDT  -99.99 -99.99    7  192    8 -99.9 -99.9 -999.9 -9.9 -9.999 -99.9 -99.99 -9.99
2019/08/15 11:18 PDT  -99.99 -99.99    8  198    9 -99.9 -99.9 -999.9 -9.9 -9.999 -99.9 -99.99 -9.99
2019/08/15 11:24 PDT  -99.99 -99.99    9  202    9 -99.9 -99.9 -999.9 -9.9 -9.999 -99.9 -99.99 -9.99
2019/08/15 11:30 PDT  -99.99 -99.99    9  206   10 -99.9 -99.9 -999.9 -9.9 -9.999 -99.9 -99.99 -9.99
2019/08/15 11:36 PDT  -99.99 -99.99   11  210   11 -99.9 -99.9 -999.9 -9.9 -9.999 -99.9 -99.99 -9.99
2019/08/15 11:42 PDT  -99.99 -99.99   11  210   11 -99.9 -99.9 -999.9 -9.9 -9.999 -99.9 -99.99 -9.99
2019/08/15 11:48 PDT  -99.99 -99.99   11  214   11 -99.9 -99.9 -999.9 -9.9 -9.999 -99.9 -99.99 -9.99
2019/08/15 11:54 PDT  -99.99 -99.99   11  218   12 -99.9 -99.9 -999.9 -9.9 -9.999 -99.9 -99.99 -9.99
2019/08/15 12:00 PDT  -99.99 -99.99   12  218   13 -99.9 -99.9 -999.9 -9.9 -9.999 -99.9 -99.99 -9.99
2019/08/15 12:06 PDT  -99.99 -99.99   11  217   13 -99.9 -99.9 -999.9 -9.9 -9.999 -99.9 -99.99 -9.99
2019/08/15 12:12 PDT  -99.99 -99.99   12  219   13 -99.9 -99.9 -999.9 -9.9 -9.999 -99.9 -99.99 -9.99
2019/08/15 12:18 PDT  -99.99 -99.99   13  218   14 -99.9 -99.9 -999.9 -9.9 -9.999 -99.9 -99.99 -9.99
2019/08/15 12:24 PDT  -99.99 -99.99   14  219   15 -99.9 -99.9 -999.9 -9.9 -9.999 -99.9 -99.99 -9.99
2019/08/15 12:30 PDT  -99.99 -99.99   14  219   15 -99.9 -99.9 -999.9 -9.9 -9.999 -99.9 -99.99 -9.99
2019/08/15 12:36 PDT  -99.99 -99.99   14  219   15 -99.9 -99.9 -999.9 -9.9 -9.999 -99.9 -99.99 -9.99
2019/08/15 12:42 PDT  -99.99 -99.99   13  220   15 -99.9 -99.9 -999.9 -9.9 -9.999 -99.9 -99.99 -9.99
2019/08/15 12:48 PDT  -99.99 -99.99   10  208   14 -99.9 -99.9 -999.9 -9.9 -9.999 -99.9 -99.99 -9.99
2019/08/15 12:54 PDT  -99.99 -99.99   13  218   14 -99.9 -99.9 -999.9 -9.9 -9.999 -99.9 -99.99 -9.99
2019/08/15 13:00 PDT  -99.99 -99.99   12  219   14 -99.9 -99.9 -999.9 -9.9 -9.999 -99.9 -99.99 -9.99
2019/08/15 13:06 PDT  -99.99 -99.99   13  217   13 -99.9 -99.9 -999.9 -9.9 -9.999 -99.9 -99.99 -9.99
2019/08/15 13:12 PDT  -99.99 -99.99   12  216   13 -99.9 -99.9 -999.9 -9.9 -9.999 -99.9 -99.99 -9.99
2019/08/15 13:18 PDT  -99.99 -99.99   12  218   13 -99.9 -99.9 -999.9 -9.9 -9.999 -99.9 -99.99 -9.99
2019/08/15 13:24 PDT  -99.99 -99.99   12  221   13 -99.9 -99.9 -999.9 -9.9 -9.999 -99.9 -99.99 -9.99
2019/08/15 13:30 PDT  -99.99 -99.99   12  224   13 -99.9 -99.9 -999.9 -9.9 -9.999 -99.9 -99.99 -9.99
2019/08/15 13:36 PDT  -99.99 -99.99   11  224   12 -99.9 -99.9 -999.9 -9.9 -9.999 -99.9 -99.99 -9.99
2019/08/15 13:42 PDT  -99.99 -99.99   10  230   11 -99.9 -99.9 -999.9 -9.9 -9.999 -99.9 -99.99 -9.99
2019/08/15 13:48 PDT  -99.99 -99.99    9  226   10 -99.9 -99.9 -999.9 -9.9 -9.999 -99.9 -99.99 -9.99
2019/08/15 13:54 PDT  -99.99 -99.99    9  230   10 -99.9 -99.9 -999.9 -9.9 -9.999 -99.9 -99.99 -9.99
2019/08/15 14:00 PDT  -99.99 -99.99    9  227   10 -99.9 -99.9 -999.9 -9.9 -9.999 -99.9 -99.99 -9.99
2019/08/15 14:06 PDT  -99.99 -99.99   11  224   12 -99.9 -99.9 -999.9 -9.9 -9.999 -99.9 -99.99 -9.99
2019/08/15 14:12 PDT  -99.99 -99.99   12  224   12 -99.9 -99.9 -999.9 -9.9 -9.999 -99.9 -99.99 -9.99
2019/08/15 14:18 PDT  -99.99 -99.99   12  225   13 -99.9 -99.9 -999.9 -9.9 -9.999 -99.9 -99.99 -9.99
2019/08/15 14:24 PDT  -99.99 -99.99   12  228   13 -99.9 -99.9 -999.9 -9.9 -9.999 -99.9 -99.99 -9.99
2019/08/15 14:30 PDT  -99.99 -99.99   11  231   12 -99.9 -99.9 -999.9 -9.9 -9.999 -99.9 -99.99 -9.99
2019/08/15 14:36 PDT  -99.99 -99.99   10  232   11 -99.9 -99.9 -999.9 -9.9 -9.999 -99.9 -99.99 -9.99
2019/08/15 14:42 PDT  -99.99 -99.99   10  231   11 -99.9 -99.9 -999.9 -9.9 -9.999 -99.9 -99.99 -9.99
2019/08/15 14:48 PDT  -99.99 -99.99   11  231   12 -99.9 -99.9 -999.9 -9.9 -9.999 -99.9 -99.99 -9.99
2019/08/15 14:54 PDT  -99.99 -99.99   11  230   11 -99.9 -99.9 -999.9 -9.9 -9.999 -99.9 -99.99 -9.99
2019/08/15 15:00 PDT  -99.99 -99.99   10  234   11 -99.9 -99.9 -999.9 -9.9 -9.999 -99.9 -99.99 -9.99
2019/08/15 15:06 PDT  -99.99 -99.99   10  233   11 -99.9 -99.9 -999.9 -9.9 -9.999 -99.9 -99.99 -9.99
2019/08/15 15:12 PDT  -99.99 -99.99    9  235   11 -99.9 -99.9 -999.9 -9.9 -9.999 -99.9 -99.99 -9.99
2019/08/15 15:18 PDT  -99.99 -99.99   10  228   11 -99.9 -99.9 -999.9 -9.9 -9.999 -99.9 -99.99 -9.99
2019/08/15 15:24 PDT  -99.99 -99.99    9  234   11 -99.9 -99.9 -999.9 -9.9 -9.999 -99.9 -99.99 -9.99
2019/08/15 15:30 PDT  -99.99 -99.99   11  228   12 -99.9 -99.9 -999.9 -9.9 -9.999 -99.9 -99.99 -9.99
2019/08/15 15:36 PDT  -99.99 -99.99   10  234   12 -99.9 -99.9 -999.9 -9.9 -9.999 -99.9 -99.99 -9.99
2019/08/15 15:42 PDT  -99.99 -99.99   11  231   12 -99.9 -99.9 -999.9 -9.9 -9.999 -99.9 -99.99 -9.99
2019/08/15 15:48 PDT  -99.99 -99.99   11  234   13 -99.9 -99.9 -999.9 -9.9 -9.999 -99.9 -99.99 -9.99
2019/08/15 15:54 PDT  -99.99 -99.99   11  234   13 -99.9 -99.9 -999.9 -9.9 -9.999 -99.9 -99.99 -9.99
2019/08/15 16:00 PDT  -99.99 -99.99   10  236   13 -99.9 -99.9 -999.9 -9.9 -9.999 -99.9 -99.99 -9.99
2019/08/15 16:06 PDT  -99.99 -99.99   10  234   11 -99.9 -99.9 -999.9 -9.9 -9.999 -99.9 -99.99 -9.99
2019/08/15 16:12 PDT  -99.99 -99.99   10  235   12 -99.9 -99.9 -999.9 -9.9 -9.999 -99.9 -99.99 -9.99
2019/08/15 16:18 PDT  -99.99 -99.99   12  232   13 -99.9 -99.9 -999.9 -9.9 -9.999 -99.9 -99.99 -9.99
2019/08/15 16:24 PDT  -99.99 -99.99   12  229   13 -99.9 -99.9 -999.9 -9.9 -9.999 -99.9 -99.99 -9.99
2019/08/15 16:30 PDT  -99.99 -99.99   11  231   12 -99.9 -99.9 -999.9 -9.9 -9.999 -99.9 -99.99 -9.99
2019/08/15 16:36 PDT  -99.99 -99.99   11  231   12 -99.9 -99.9 -999.9 -9.9 -9.999 -99.9 -99.99 -9.99
2019/08/15 16:42 PDT  -99.99 -99.99   11  229   11 -99.9 -99.9 -999.9 -9.9 -9.999 -99.9 -99.99 -9.99
2019/08/15 16:48 PDT  -99.99 -99.99   11  230   13 -99.9 -99.9 -999.9 -9.9 -9.999 -99.9 -99.99 -9.99
2019/08/15 16:54 PDT  -99.99 -99.99   11  228   12 -99.9 -99.9 -999.9 -9.9 -9.999 -99.9 -99.99 -9.99
2019/08/15 17:00 PDT  -99.99 -99.99    8  236   12 -99.9 -99.9 -999.9 -9.9 -9.999 -99.9 -99.99 -9.99
2019/08/15 17:06 PDT  -99.99 -99.99    5  239    7 -99.9 -99.9 -999.9 -9.9 -9.999 -99.9 -99.99 -9.99
2019/08/15 17:12 PDT  -99.99 -99.99    5  232    5 -99.9 -99.9 -999.9 -9.9 -9.999 -99.9 -99.99 -9.99
2019/08/15 17:18 PDT  -99.99 -99.99    4  234    5 -99.9 -99.9 -999.9 -9.9 -9.999 -99.9 -99.99 -9.99
2019/08/15 17:24 PDT  -99.99 -99.99    4  233    5 -99.9 -99.9 -999.9 -9.9 -9.999 -99.9 -99.99 -9.99
2019/08/15 17:30 PDT  -99.99 -99.99    4  239    6 -99.9 -99.9 -999.9 -9.9 -9.999 -99.9 -99.99 -9.99
2019/08/15 17:36 PDT  -99.99 -99.99    3  239    6 -99.9 -99.9 -999.9 -9.9 -9.999 -99.9 -99.99 -9.99
2019/08/15 17:42 PDT  -99.99 -99.99    5  327    7 -99.9 -99.9 -999.9 -9.9 -9.999 -99.9 -99.99 -9.99
2019/08/15 17:48 PDT  -99.99 -99.99    6  338    8 -99.9 -99.9 -999.9 -9.9 -9.999 -99.9 -99.99 -9.99
2019/08/15 17:54 PDT  -99.99 -99.99    6  346    9 -99.9 -99.9 -999.9 -9.9 -9.999 -99.9 -99.99 -9.99
2019/08/15 18:00 PDT  -99.99 -99.99    7  356    8 -99.9 -99.9 -999.9 -9.9 -9.999 -99.9 -99.99 -9.99
2019/08/15 18:06 PDT  -99.99 -99.99    5  343    7 -99.9 -99.9 -999.9 -9.9 -9.999 -99.9 -99.99 -9.99
2019/08/15 18:12 PDT  -99.99 -99.99    3  317    7 -99.9 -99.9 -999.9 -9.9 -9.999 -99.9 -99.99 -9.99
2019/08/15 18:18 PDT  -99.99 -99.99    7  227   10 -99.9 -99.9 -999.9 -9.9 -9.999 -99.9 -99.99 -9.99
2019/08/15 18:24 PDT  -99.99 -99.99    7  232    8 -99.9 -99.9 -999.9 -9.9 -9.999 -99.9 -99.99 -9.99
2019/08/15 18:30 PDT  -99.99 -99.99    6  232    7 -99.9 -99.9 -999.9 -9.9 -9.999 -99.9 -99.99 -9.99
2019/08/15 18:36 PDT  -99.99 -99.99    3  253    5 -99.9 -99.9 -999.9 -9.9 -9.999 -99.9 -99.99 -9.99
2019/08/15 18:42 PDT  -99.99 -99.99    6  356    7 -99.9 -99.9 -999.9 -9.9 -9.999 -99.9 -99.99 -9.99
2019/08/15 18:48 PDT  -99.99 -99.99    6  353    7 -99.9 -99.9 -999.9 -9.9 -9.999 -99.9 -99.99 -9.99
2019/08/15 18:54 PDT  -99.99 -99.99    6  342    8 -99.9 -99.9 -999.9 -9.9 -9.999 -99.9 -99.99 -9.99
2019/08/15 19:00 PDT  -99.99 -99.99    8  322    9 -99.9 -99.9 -999.9 -9.9 -9.999 -99.9 -99.99 -9.99
2019/08/15 19:06 PDT  -99.99 -99.99    7  328    8 -99.9 -99.9 -999.9 -9.9 -9.999 -99.9 -99.99 -9.99
2019/08/15 19:12 PDT  -99.99 -99.99    5  333    7 -99.9 -99.9 -999.9 -9.9 -9.999 -99.9 -99.99 -9.99
2019/08/15 19:18 PDT  -99.99 -99.99    5  348    6 -99.9 -99.9 -999.9 -9.9 -9.999 -99.9 -99.99 -9.99
2019/08/15 19:24 PDT  -99.99 -99.99    5  358    6 -99.9 -99.9 -999.9 -9.9 -9.999 -99.9 -99.99 -9.99
2019/08/15 19:30 PDT  -99.99 -99.99    5  358    7 -99.9 -99.9 -999.9 -9.9 -9.999 -99.9 -99.99 -9.99
2019/08/15 19:36 PDT  -99.99 -99.99    5    2    7 -99.9 -99.9 -999.9 -9.9 -9.999 -99.9 -99.99 -9.99
2019/08/15 19:42 PDT  -99.99 -99.99    5    0    6 -99.9 -99.9 -999.9 -9.9 -9.999 -99.9 -99.99 -9.99
2019/08/15 19:48 PDT  -99.99 -99.99    5  359    6 -99.9 -99.9 -999.9 -9.9 -9.999 -99.9 -99.99 -9.99
2019/08/15 19:54 PDT  -99.99 -99.99    5  345    6 -99.9 -99.9 -999.9 -9.9 -9.999 -99.9 -99.99 -9.99
2019/08/15 20:00 PDT  -99.99 -99.99    5  333    6 -99.9 -99.9 -999.9 -9.9 -9.999 -99.9 -99.99 -9.99
2019/08/15 20:06 PDT  -99.99 -99.99    7  328    8 -99.9 -99.9 -999.9 -9.9 -9.999 -99.9 -99.99 -9.99
2019/08/15 20:12 PDT  -99.99 -99.99    6  318    7 -99.9 -99.9 -999.9 -9.9 -9.999 -99.9 -99.99 -9.99
2019/08/15 20:18 PDT  -99.99 -99.99    5  347    6 -99.9 -99.9 -999.9 -9.9 -9.999 -99.9 -99.99 -9.99
2019/08/15 20:24 PDT  -99.99 -99.99    7  321    8 -99.9 -99.9 -999.9 -9.9 -9.999 -99.9 -99.99 -9.99
2019/08/15 20:30 PDT  -99.99 -99.99    7  317    8 -99.9 -99.9 -999.9 -9.9 -9.999 -99.9 -99.99 -9.99
2019/08/15 20:36 PDT  -99.99 -99.99    7  320    8 -99.9 -99.9 -999.9 -9.9 -9.999 -99.9 -99.99 -9.99
2019/08/15 20:42 PDT  -99.99 -99.99    7  322    8 -99.9 -99.9 -999.9 -9.9 -9.999 -99.9 -99.99 -9.99
2019/08/15 20:48 PDT  -99.99 -99.99    6  322    8 -99.9 -99.9 -999.9 -9.9 -9.999 -99.9 -99.99 -9.99
2019/08/15 20:54 PDT  -99.99 -99.99    6  328    7 -99.9 -99.9 -999.9 -9.9 -9.999 -99.9 -99.99 -9.99
2019/08/15 21:00 PDT  -99.99 -99.99    7  323    8 -99.9 -99.9 -999.9 -9.9 -9.999 -99.9 -99.99 -9.99
2019/08/15 21:06 PDT  -99.99 -99.99    6  331    7 -99.9 -99.9 -999.9 -9.9 -9.999 -99.9 -99.99 -9.99
2019/08/15 21:12 PDT  -99.99 -99.99    7  331    8 -99.9 -99.9 -999.9 -9.9 -9.999 -99.9 -99.99 -9.99
2019/08/15 21:18 PDT  -99.99 -99.99    6  325    8 -99.9 -99.9 -999.9 -9.9 -9.999 -99.9 -99.99 -9.99
2019/08/15 21:24 PDT  -99.99 -99.99    7  326    9 -99.9 -99.9 -999.9 -9.9 -9.999 -99.9 -99.99 -9.99
2019/08/15 21:30 PDT  -99.99 -99.99    6  319    7 -99.9 -99.9 -999.9 -9.9 -9.999 -99.9 -99.99 -9.99
2019/08/15 21:36 PDT  -99.99 -99.99    7  331    7 -99.9 -99.9 -999.9 -9.9 -9.999 -99.9 -99.99 -9.99
2019/08/15 21:42 PDT  -99.99 -99.99    5  322    7 -99.9 -99.9 -999.9 -9.9 -9.999 -99.9 -99.99 -9.99
2019/08/15 21:48 PDT  -99.99 -99.99    4  317    6 -99.9 -99.9 -999.9 -9.9 -9.999 -99.9 -99.99 -9.99
2019/08/15 21:54 PDT  -99.99 -99.99    4  317    5 -99.9 -99.9 -999.9 -9.9 -9.999 -99.9 -99.99 -9.99
2019/08/15 22:00 PDT  -99.99 -99.99    4  326    5 -99.9 -99.9 -999.9 -9.9 -9.999 -99.9 -99.99 -9.99
2019/08/15 22:06 PDT  -99.99 -99.99    4  333    5 -99.9 -99.9 -999.9 -9.9 -9.999 -99.9 -99.99 -9.99
2019/08/15 22:12 PDT  -99.99 -99.99    3  322    4 -99.9 -99.9 -999.9 -9.9 -9.999 -99.9 -99.99 -9.99
2019/08/15 22:18 PDT  -99.99 -99.99    3  332    4 -99.9 -99.9 -999.9 -9.9 -9.999 -99.9 -99.99 -9.99
2019/08/15 22:24 PDT  -99.99 -99.99    4  329    5 -99.9 -99.9 -999.9 -9.9 -9.999 -99.9 -99.99 -9.99
2019/08/15 22:30 PDT  -99.99 -99.99    4  324    5 -99.9 -99.9 -999.9 -9.9 -9.999 -99.9 -99.99 -9.99
2019/08/15 22:36 PDT  -99.99 -99.99    4  325    4 -99.9 -99.9 -999.9 -9.9 -9.999 -99.9 -99.99 -9.99
2019/08/15 22:42 PDT  -99.99 -99.99    3  311    4 -99.9 -99.9 -999.9 -9.9 -9.999 -99.9 -99.99 -9.99
2019/08/15 22:48 PDT  -99.99 -99.99    3  306    4 -99.9 -99.9 -999.9 -9.9 -9.999 -99.9 -99.99 -9.99
2019/08/15 22:54 PDT  -99.99 -99.99    3  308    3 -99.9 -99.9 -999.9 -9.9 -9.999 -99.9 -99.99 -9.99
2019/08/15 23:00 PDT  -99.99 -99.99    2  302    3 -99.9 -99.9 -999.9 -9.9 -9.999 -99.9 -99.99 -9.99
2019/08/15 23:06 PDT  -99.99 -99.99    2  274    2 -99.9 -99.9 -999.9 -9.9 -9.999 -99.9 -99.99 -9.99
2019/08/15 23:12 PDT  -99.99 -99.99    2  225    3 -99.9 -99.9 -999.9 -9.9 -9.999 -99.9 -99.99 -9.99
2019/08/15 23:18 PDT  -99.99 -99.99    5  224    6 -99.9 -99.9 -999.9 -9.9 -9.999 -99.9 -99.99 -9.99
2019/08/15 23:24 PDT  -99.99 -99.99    6  230    7 -99.9 -99.9 -999.9 -9.9 -9.999 -99.9 -99.99 -9.99
2019/08/15 23:30 PDT  -99.99 -99.99    5  233    6 -99.9 -99.9 -999.9 -9.9 -9.999 -99.9 -99.99 -9.99
2019/08/15 23:36 PDT  -99.99 -99.99    4  232    6 -99.9 -99.9 -999.9 -9.9 -9.999 -99.9 -99.99 -9.99
2019/08/15 23:42 PDT  -99.99 -99.99    6  229    6 -99.9 -99.9 -999.9 -9.9 -9.999 -99.9 -99.99 -9.99
2019/08/15 23:48 PDT  -99.99 -99.99    5  233    6 -99.9 -99.9 -999.9 -9.9 -9.999 -99.9 -99.99 -9.99
2019/08/15 23:54 PDT  -99.99 -99.99    6  224    6 -99.9 -99.9 -999.9 -9.9 -9.999 -99.9 -99.99 -9.99
2019/08/16 00:00 PDT  -99.99 -99.99    6  223    7 -99.9 -99.9 -999.9 -9.9 -9.999 -99.9 -99.99 -9.99
2019/08/16 00:06 PDT  -99.99 -99.99    6  216    7 -99.9 -99.9 -999.9 -9.9 -9.999 -99.9 -99.99 -9.99
2019/08/16 00:12 PDT  -99.99 -99.99    7  217    8 -99.9 -99.9 -999.9 -9.9 -9.999 -99.9 -99.99 -9.99
2019/08/16 00:18 PDT  -99.99 -99.99    8  214    9 -99.9 -99.9 -999.9 -9.9 -9.999 -99.9 -99.99 -9.99
2019/08/16 00:24 PDT  -99.99 -99.99    8  218    9 -99.9 -99.9 -999.9 -9.9 -9.999 -99.9 -99.99 -9.99
2019/08/16 00:30 PDT  -99.99 -99.99    7  221    9 -99.9 -99.9 -999.9 -9.9 -9.999 -99.9 -99.99 -9.99
2019/08/16 00:36 PDT  -99.99 -99.99    7  229    8 -99.9 -99.9 -999.9 -9.9 -9.999 -99.9 -99.99 -9.99
2019/08/16 00:42 PDT  -99.99 -99.99    6  224    7 -99.9 -99.9 -999.9 -9.9 -9.999 -99.9 -99.99 -9.99
2019/08/16 00:48 PDT  -99.99 -99.99    5  228    7 -99.9 -99.9 -999.9 -9.9 -9.999 -99.9 -99.99 -9.99
2019/08/16 00:54 PDT  -99.99 -99.99    7  227    8 -99.9 -99.9 -999.9 -9.9 -9.999 -99.9 -99.99 -9.99
2019/08/16 01:00 PDT  -99.99 -99.99    5  229    7 -99.9 -99.9 -999.9 -9.9 -9.999 -99.9 -99.99 -9.99
2019/08/16 01:06 PDT  -99.99 -99.99    7  216    7 -99.9 -99.9 -999.9 -9.9 -9.999 -99.9 -99.99 -9.99
2019/08/16 01:12 PDT  -99.99 -99.99    3  206    7 -99.9 -99.9 -999.9 -9.9 -9.999 -99.9 -99.99 -9.99
2019/08/16 01:18 PDT  -99.99 -99.99    4  228    5 -99.9 -99.9 -999.9 -9.9 -9.999 -99.9 -99.99 -9.99
2019/08/16 01:24 PDT  -99.99 -99.99    3  214    4 -99.9 -99.9 -999.9 -9.9 -9.999 -99.9 -99.99 -9.99
2019/08/16 01:30 PDT  -99.99 -99.99    5  214    6 -99.9 -99.9 -999.9 -9.9 -9.999 -99.9 -99.99 -9.99
2019/08/16 01:36 PDT  -99.99 -99.99    5  212    5 -99.9 -99.9 -999.9 -9.9 -9.999 -99.9 -99.99 -9.99
2019/08/16 01:42 PDT  -99.99 -99.99    3  197    5 -99.9 -99.9 -999.9 -9.9 -9.999 -99.9 -99.99 -9.99
2019/08/16 01:48 PDT  -99.99 -99.99    2  198    3 -99.9 -99.9 -999.9 -9.9 -9.999 -99.9 -99.99 -9.99
2019/08/16 01:54 PDT  -99.99 -99.99    3  186    4 -99.9 -99.9 -999.9 -9.9 -9.999 -99.9 -99.99 -9.99
2019/08/16 02:00 PDT  -99.99 -99.99    3  197    4 -99.9 -99.9 -999.9 -9.9 -9.999 -99.9 -99.99 -9.99
2019/08/16 02:06 PDT  -99.99 -99.99    6  197    7 -99.9 -99.9 -999.9 -9.9 -9.999 -99.9 -99.99 -9.99
2019/08/16 02:12 PDT  -99.99 -99.99    5  209    8 -99.9 -99.9 -999.9 -9.9 -9.999 -99.9 -99.99 -9.99
2019/08/16 02:18 PDT  -99.99 -99.99    3  220    3 -99.9 -99.9 -999.9 -9.9 -9.999 -99.9 -99.99 -9.99
2019/08/16 02:24 PDT  -99.99 -99.99    3  233    4 -99.9 -99.9 -999.9 -9.9 -9.999 -99.9 -99.99 -9.99
2019/08/16 02:30 PDT  -99.99 -99.99    3  210    4 -99.9 -99.9 -999.9 -9.9 -9.999 -99.9 -99.99 -9.99
2019/08/16 02:36 PDT  -99.99 -99.99    4  237    6 -99.9 -99.9 -999.9 -9.9 -9.999 -99.9 -99.99 -9.99
2019/08/16 02:42 PDT  -99.99 -99.99    3  178    6 -99.9 -99.9 -999.9 -9.9 -9.999 -99.9 -99.99 -9.99
2019/08/16 02:48 PDT  -99.99 -99.99    2  137    5 -99.9 -99.9 -999.9 -9.9 -9.999 -99.9 -99.99 -9.99
2019/08/16 02:54 PDT  -99.99 -99.99    3  213    6 -99.9 -99.9 -999.9 -9.9 -9.999 -99.9 -99.99 -9.99
2019/08/16 03:00 PDT  -99.99 -99.99    2  203    3 -99.9 -99.9 -999.9 -9.9 -9.999 -99.9 -99.99 -9.99
2019/08/16 03:06 PDT  -99.99 -99.99    4  215    6 -99.9 -99.9 -999.9 -9.9 -9.999 -99.9 -99.99 -9.99
2019/08/16 03:12 PDT  -99.99 -99.99    1  125    6 -99.9 -99.9 -999.9 -9.9 -9.999 -99.9 -99.99 -9.99
2019/08/16 03:18 PDT  -99.99 -99.99    3  134    4 -99.9 -99.9 -999.9 -9.9 -9.999 -99.9 -99.99 -9.99
2019/08/16 03:24 PDT  -99.99 -99.99    0  337    4 -99.9 -99.9 -999.9 -9.9 -9.999 -99.9 -99.99 -9.99
2019/08/16 03:30 PDT  -99.99 -99.99    2  113    2 -99.9 -99.9 -999.9 -9.9 -9.999 -99.9 -99.99 -9.99
2019/08/16 03:36 PDT  -99.99 -99.99    3  189    5 -99.9 -99.9 -999.9 -9.9 -9.999 -99.9 -99.99 -9.99
2019/08/16 03:42 PDT  -99.99 -99.99    3  197    5 -99.9 -99.9 -999.9 -9.9 -9.999 -99.9 -99.99 -9.99
2019/08/16 03:48 PDT  -99.99 -99.99    3  181    4 -99.9 -99.9 -999.9 -9.9 -9.999 -99.9 -99.99 -9.99
2019/08/16 03:54 PDT  -99.99 -99.99    5  181    6 -99.9 -99.9 -999.9 -9.9 -9.999 -99.9 -99.99 -9.99
2019/08/16 04:00 PDT  -99.99 -99.99    4  192    6 -99.9 -99.9 -999.9 -9.9 -9.999 -99.9 -99.99 -9.99
2019/08/16 04:06 PDT  -99.99 -99.99    4  197    4 -99.9 -99.9 -999.9 -9.9 -9.999 -99.9 -99.99 -9.99
2019/08/16 04:12 PDT  -99.99 -99.99    3  144    5 -99.9 -99.9 -999.9 -9.9 -9.999 -99.9 -99.99 -9.99
2019/08/16 04:18 PDT  -99.99 -99.99    4  145    5 -99.9 -99.9 -999.9 -9.9 -9.999 -99.9 -99.99 -9.99
2019/08/16 04:24 PDT  -99.99 -99.99    4  173    5 -99.9 -99.9 -999.9 -9.9 -9.999 -99.9 -99.99 -9.99
2019/08/16 04:30 PDT  -99.99 -99.99    4  157    5 -99.9 -99.9 -999.9 -9.9 -9.999 -99.9 -99.99 -9.99
2019/08/16 04:36 PDT  -99.99 -99.99    5  145    6 -99.9 -99.9 -999.9 -9.9 -9.999 -99.9 -99.99 -9.99
2019/08/16 04:42 PDT  -99.99 -99.99    4  129    6 -99.9 -99.9 -999.9 -9.9 -9.999 -99.9 -99.99 -9.99
2019/08/16 04:48 PDT  -99.99 -99.99    5  126    6 -99.9 -99.9 -999.9 -9.9 -9.999 -99.9 -99.99 -9.99
2019/08/16 04:54 PDT  -99.99 -99.99    4  117    5 -99.9 -99.9 -999.9 -9.9 -9.999 -99.9 -99.99 -9.99
2019/08/16 05:00 PDT  -99.99 -99.99    2   99    5 -99.9 -99.9 -999.9 -9.9 -9.999 -99.9 -99.99 -9.99
2019/08/16 05:06 PDT  -99.99 -99.99    4  137    4 -99.9 -99.9 -999.9 -9.9 -9.999 -99.9 -99.99 -9.99
2019/08/16 05:12 PDT  -99.99 -99.99    5  153    6 -99.9 -99.9 -999.9 -9.9 -9.999 -99.9 -99.99 -9.99
2019/08/16 05:18 PDT  -99.99 -99.99    2  142    6 -99.9 -99.9 -999.9 -9.9 -9.999 -99.9 -99.99 -9.99
2019/08/16 05:24 PDT  -99.99 -99.99    4  147    4 -99.9 -99.9 -999.9 -9.9 -9.999 -99.9 -99.99 -9.99
2019/08/16 05:30 PDT  -99.99 -99.99    4  143    5 -99.9 -99.9 -999.9 -9.9 -9.999 -99.9 -99.99 -9.99
2019/08/16 05:36 PDT  -99.99 -99.99    5  180    6 -99.9 -99.9 -999.9 -9.9 -9.999 -99.9 -99.99 -9.99
2019/08/16 05:42 PDT  -99.99 -99.99    4  128    6 -99.9 -99.9 -999.9 -9.9 -9.999 -99.9 -99.99 -9.99
2019/08/16 05:48 PDT  -99.99 -99.99    4  149    5 -99.9 -99.9 -999.9 -9.9 -9.999 -99.9 -99.99 -9.99
2019/08/16 05:54 PDT  -99.99 -99.99    4  180    7 -99.9 -99.9 -999.9 -9.9 -9.999 -99.9 -99.99 -9.99
2019/08/16 06:00 PDT  -99.99 -99.99    1  194    4 -99.9 -99.9 -999.9 -9.9 -9.999 -99.9 -99.99 -9.99
2019/08/16 06:06 PDT  -99.99 -99.99    3  188    6 -99.9 -99.9 -999.9 -9.9 -9.999 -99.9 -99.99 -9.99
2019/08/16 06:12 PDT  -99.99 -99.99    2  185    6 -99.9 -99.9 -999.9 -9.9 -9.999 -99.9 -99.99 -9.99
2019/08/16 06:18 PDT  -99.99 -99.99    2  164    2 -99.9 -99.9 -999.9 -9.9 -9.999 -99.9 -99.99 -9.99
2019/08/16 06:24 PDT  -99.99 -99.99    5  157    6 -99.9 -99.9 -999.9 -9.9 -9.999 -99.9 -99.99 -9.99
2019/08/16 06:30 PDT  -99.99 -99.99    3  122    6 -99.9 -99.9 -999.9 -9.9 -9.999 -99.9 -99.99 -9.99
2019/08/16 06:36 PDT  -99.99 -99.99    2  165    3 -99.9 -99.9 -999.9 -9.9 -9.999 -99.9 -99.99 -9.99
2019/08/16 06:42 PDT  -99.99 -99.99    2  198    3 -99.9 -99.9 -999.9 -9.9 -9.999 -99.9 -99.99 -9.99
2019/08/16 06:48 PDT  -99.99 -99.99    2  183    3 -99.9 -99.9 -999.9 -9.9 -9.999 -99.9 -99.99 -9.99
2019/08/16 06:54 PDT  -99.99 -99.99    1  201    2 -99.9 -99.9 -999.9 -9.9 -9.999 -99.9 -99.99 -9.99
2019/08/16 07:00 PDT  -99.99 -99.99    0  162    2 -99.9 -99.9 -999.9 -9.9 -9.999 -99.9 -99.99 -9.99
2019/08/16 07:06 PDT  -99.99 -99.99    0  257    1 -99.9 -99.9 -999.9 -9.9 -9.999 -99.9 -99.99 -9.99
2019/08/16 07:12 PDT  -99.99 -99.99    1  136    2 -99.9 -99.9 -999.9 -9.9 -9.999 -99.9 -99.99 -9.99
2019/08/16 07:18 PDT  -99.99 -99.99    0  283    2 -99.9 -99.9 -999.9 -9.9 -9.999 -99.9 -99.99 -9.99
2019/08/16 07:24 PDT  -99.99 -99.99    1  214    2 -99.9 -99.9 -999.9 -9.9 -9.999 -99.9 -99.99 -9.99
2019/08/16 07:30 PDT  -99.99 -99.99    1  184    3 -99.9 -99.9 -999.9 -9.9 -9.999 -99.9 -99.99 -9.99
2019/08/16 07:36 PDT  -99.99 -99.99    2  148    3 -99.9 -99.9 -999.9 -9.9 -9.999 -99.9 -99.99 -9.99
2019/08/16 07:42 PDT  -99.99 -99.99    5  125    7 -99.9 -99.9 -999.9 -9.9 -9.999 -99.9 -99.99 -9.99
2019/08/16 07:48 PDT  -99.99 -99.99    2  143    5 -99.9 -99.9 -999.9 -9.9 -9.999 -99.9 -99.99 -9.99
2019/08/16 07:54 PDT  -99.99 -99.99    2  123    3 -99.9 -99.9 -999.9 -9.9 -9.999 -99.9 -99.99 -9.99
2019/08/16 08:00 PDT  -99.99 -99.99    4  101    5 -99.9 -99.9 -999.9 -9.9 -9.999 -99.9 -99.99 -9.99
2019/08/16 08:06 PDT  -99.99 -99.99    2  142    5 -99.9 -99.9 -999.9 -9.9 -9.999 -99.9 -99.99 -9.99
2019/08/16 08:12 PDT  -99.99 -99.99    3  141    8 -99.9 -99.9 -999.9 -9.9 -9.999 -99.9 -99.99 -9.99
2019/08/16 08:18 PDT  -99.99 -99.99    4  124    8 -99.9 -99.9 -999.9 -9.9 -9.999 -99.9 -99.99 -9.99
2019/08/16 08:24 PDT  -99.99 -99.99    3  149    3 -99.9 -99.9 -999.9 -9.9 -9.999 -99.9 -99.99 -9.99
2019/08/16 08:30 PDT  -99.99 -99.99    4  111    6 -99.9 -99.9 -999.9 -9.9 -9.999 -99.9 -99.99 -9.99
2019/08/16 08:36 PDT  -99.99 -99.99    3   70    6 -99.9 -99.9 -999.9 -9.9 -9.999 -99.9 -99.99 -9.99
2019/08/16 08:42 PDT  -99.99 -99.99    4   83    5 -99.9 -99.9 -999.9 -9.9 -9.999 -99.9 -99.99 -9.99
2019/08/16 08:48 PDT  -99.99 -99.99    2   80    6 -99.9 -99.9 -999.9 -9.9 -9.999 -99.9 -99.99 -9.99
2019/08/16 08:54 PDT  -99.99 -99.99    2   95    3 -99.9 -99.9 -999.9 -9.9 -9.999 -99.9 -99.99 -9.99
2019/08/16 09:00 PDT  -99.99 -99.99    4   90    5 -99.9 -99.9 -999.9 -9.9 -9.999 -99.9 -99.99 -9.99
2019/08/16 09:06 PDT  -99.99 -99.99    5  120    6 -99.9 -99.9 -999.9 -9.9 -9.999 -99.9 -99.99 -9.99
2019/08/16 09:12 PDT  -99.99 -99.99    4  100    6 -99.9 -99.9 -999.9 -9.9 -9.999 -99.9 -99.99 -9.99
2019/08/16 09:18 PDT  -99.99 -99.99    4  105    6 -99.9 -99.9 -999.9 -9.9 -9.999 -99.9 -99.99 -9.99
2019/08/16 09:24 PDT  -99.99 -99.99    5  145    8 -99.9 -99.9 -999.9 -9.9 -9.999 -99.9 -99.99 -9.99
2019/08/16 09:30 PDT  -99.99 -99.99    4  126    7 -99.9 -99.9 -999.9 -9.9 -9.999 -99.9 -99.99 -9.99
2019/08/16 09:36 PDT  -99.99 -99.99    5  125    7 -99.9 -99.9 -999.9 -9.9 -9.999 -99.9 -99.99 -9.99
2019/08/16 09:42 PDT  -99.99 -99.99    7  158    7 -99.9 -99.9 -999.9 -9.9 -9.999 -99.9 -99.99 -9.99
2019/08/16 09:48 PDT  -99.99 -99.99    7  177    8 -99.9 -99.9 -999.9 -9.9 -9.999 -99.9 -99.99 -9.99
2019/08/16 09:54 PDT  -99.99 -99.99    7  179    8 -99.9 -99.9 -999.9 -9.9 -9.999 -99.9 -99.99 -9.99
2019/08/16 10:00 PDT  -99.99 -99.99    7  179    7 -99.9 -99.9 -999.9 -9.9 -9.999 -99.9 -99.99 -9.99
2019/08/16 10:06 PDT  -99.99 -99.99    7  190    8 -99.9 -99.9 -999.9 -9.9 -9.999 -99.9 -99.99 -9.99
2019/08/16 10:12 PDT  -99.99 -99.99    6  189    8 -99.9 -99.9 -999.9 -9.9 -9.999 -99.9 -99.99 -9.99
2019/08/16 10:18 PDT  -99.99 -99.99    7  185    8 -99.9 -99.9 -999.9 -9.9 -9.999 -99.9 -99.99 -9.99
2019/08/16 10:24 PDT  -99.99 -99.99    7  199    8 -99.9 -99.9 -999.9 -9.9 -9.999 -99.9 -99.99 -9.99
2019/08/16 10:30 PDT  -99.99 -99.99    6  186    8 -99.9 -99.9 -999.9 -9.9 -9.999 -99.9 -99.99 -9.99
2019/08/16 10:36 PDT  -99.99 -99.99    7  190    8 -99.9 -99.9 -999.9 -9.9 -9.999 -99.9 -99.99 -9.99
2019/08/16 10:42 PDT  -99.99 -99.99    7  193    7 -99.9 -99.9 -999.9 -9.9 -9.999 -99.9 -99.99 -9.99
2019/08/16 10:48 PDT  -99.99 -99.99    7  197    8 -99.9 -99.9 -999.9 -9.9 -9.999 -99.9 -99.99 -9.99
2019/08/16 10:54 PDT  -99.99 -99.99    7  196    8 -99.9 -99.9 -999.9 -9.9 -9.999 -99.9 -99.99 -9.99
2019/08/16 11:00 PDT  -99.99 -99.99    7  197    8 -99.9 -99.9 -999.9 -9.9 -9.999 -99.9 -99.99 -9.99
2019/08/16 11:06 PDT  -99.99 -99.99    8  203    8 -99.9 -99.9 -999.9 -9.9 -9.999 -99.9 -99.99 -9.99
2019/08/16 11:12 PDT  -99.99 -99.99    7  193    9 -99.9 -99.9 -999.9 -9.9 -9.999 -99.9 -99.99 -9.99
2019/08/16 11:18 PDT  -99.99 -99.99    7  195    8 -99.9 -99.9 -999.9 -9.9 -9.999 -99.9 -99.99 -9.99
2019/08/16 11:24 PDT  -99.99 -99.99    8  192    8 -99.9 -99.9 -999.9 -9.9 -9.999 -99.9 -99.99 -9.99
2019/08/16 11:30 PDT  -99.99 -99.99    9  190    9 -99.9 -99.9 -999.9 -9.9 -9.999 -99.9 -99.99 -9.99
2019/08/16 11:36 PDT  -99.99 -99.99    9  192   10 -99.9 -99.9 -999.9 -9.9 -9.999 -99.9 -99.99 -9.99
2019/08/16 11:42 PDT  -99.99 -99.99    8  194   10 -99.9 -99.9 -999.9 -9.9 -9.999 -99.9 -99.99 -9.99
2019/08/16 11:48 PDT  -99.99 -99.99    9  204    9 -99.9 -99.9 -999.9 -9.9 -9.999 -99.9 -99.99 -9.99
2019/08/16 11:54 PDT  -99.99 -99.99    8  205    9 -99.9 -99.9 -999.9 -9.9 -9.999 -99.9 -99.99 -9.99
2019/08/16 12:00 PDT  -99.99 -99.99    9  198   10 -99.9 -99.9 -999.9 -9.9 -9.999 -99.9 -99.99 -9.99
2019/08/16 12:06 PDT  -99.99 -99.99   10  197   10 -99.9 -99.9 -999.9 -9.9 -9.999 -99.9 -99.99 -9.99
2019/08/16 12:12 PDT  -99.99 -99.99    9  198   10 -99.9 -99.9 -999.9 -9.9 -9.999 -99.9 -99.99 -9.99
2019/08/16 12:18 PDT  -99.99 -99.99    8  198   10 -99.9 -99.9 -999.9 -9.9 -9.999 -99.9 -99.99 -9.99
2019/08/16 12:24 PDT  -99.99 -99.99    9  201   10 -99.9 -99.9 -999.9 -9.9 -9.999 -99.9 -99.99 -9.99
2019/08/16 12:30 PDT  -99.99 -99.99    8  201   10 -99.9 -99.9 -999.9 -9.9 -9.999 -99.9 -99.99 -9.99
2019/08/16 12:36 PDT  -99.99 -99.99    8  201   10 -99.9 -99.9 -999.9 -9.9 -9.999 -99.9 -99.99 -9.99
2019/08/16 12:42 PDT  -99.99 -99.99    9  194   10 -99.9 -99.9 -999.9 -9.9 -9.999 -99.9 -99.99 -9.99
2019/08/16 12:48 PDT  -99.99 -99.99    8  201   10 -99.9 -99.9 -999.9 -9.9 -9.999 -99.9 -99.99 -9.99
2019/08/16 12:54 PDT  -99.99 -99.99    8  201    9 -99.9 -99.9 -999.9 -9.9 -9.999 -99.9 -99.99 -9.99
2019/08/16 13:00 PDT  -99.99 -99.99    8  201    9 -99.9 -99.9 -999.9 -9.9 -9.999 -99.9 -99.99 -9.99
2019/08/16 13:06 PDT  -99.99 -99.99    8  200   10 -99.9 -99.9 -999.9 -9.9 -9.999 -99.9 -99.99 -9.99
2019/08/16 13:12 PDT  -99.99 -99.99    9  200   10 -99.9 -99.9 -999.9 -9.9 -9.999 -99.9 -99.99 -9.99
2019/08/16 13:18 PDT  -99.99 -99.99    8  208    9 -99.9 -99.9 -999.9 -9.9 -9.999 -99.9 -99.99 -9.99
2019/08/16 13:24 PDT  -99.99 -99.99    8  207    9 -99.9 -99.9 -999.9 -9.9 -9.999 -99.9 -99.99 -9.99
2019/08/16 13:30 PDT  -99.99 -99.99    8  214    9 -99.9 -99.9 -999.9 -9.9 -9.999 -99.9 -99.99 -9.99
2019/08/16 13:36 PDT  -99.99 -99.99    7  200    9 -99.9 -99.9 -999.9 -9.9 -9.999 -99.9 -99.99 -9.99
2019/08/16 13:42 PDT  -99.99 -99.99    8  201    8 -99.9 -99.9 -999.9 -9.9 -9.999 -99.9 -99.99 -9.99
2019/08/16 13:48 PDT  -99.99 -99.99    7  203    9 -99.9 -99.9 -999.9 -9.9 -9.999 -99.9 -99.99 -9.99
2019/08/16 13:54 PDT  -99.99 -99.99    7  204    8 -99.9 -99.9 -999.9 -9.9 -9.999 -99.9 -99.99 -9.99
2019/08/16 14:00 PDT  -99.99 -99.99    7  212    8 -99.9 -99.9 -999.9 -9.9 -9.999 -99.9 -99.99 -9.99
2019/08/16 14:06 PDT  -99.99 -99.99    8  215    8 -99.9 -99.9 -999.9 -9.9 -9.999 -99.9 -99.99 -9.99
2019/08/16 14:12 PDT  -99.99 -99.99    8  215    8 -99.9 -99.9 -999.9 -9.9 -9.999 -99.9 -99.99 -9.99
2019/08/16 14:18 PDT  -99.99 -99.99    9  205    9 -99.9 -99.9 -999.9 -9.9 -9.999 -99.9 -99.99 -9.99
2019/08/16 14:24 PDT  -99.99 -99.99   10  198   11 -99.9 -99.9 -999.9 -9.9 -9.999 -99.9 -99.99 -9.99
2019/08/16 14:30 PDT  -99.99 -99.99    9  195   11 -99.9 -99.9 -999.9 -9.9 -9.999 -99.9 -99.99 -9.99
2019/08/16 14:36 PDT  -99.99 -99.99    9  195   11 -99.9 -99.9 -999.9 -9.9 -9.999 -99.9 -99.99 -9.99
2019/08/16 14:42 PDT  -99.99 -99.99   10  201   10 -99.9 -99.9 -999.9 -9.9 -9.999 -99.9 -99.99 -9.99
2019/08/16 14:48 PDT  -99.99 -99.99   11  207   11 -99.9 -99.9 -999.9 -9.9 -9.999 -99.9 -99.99 -9.99
2019/08/16 14:54 PDT  -99.99 -99.99   10  206   12 -99.9 -99.9 -999.9 -9.9 -9.999 -99.9 -99.99 -9.99
2019/08/16 15:00 PDT  -99.99 -99.99   11  209   12 -99.9 -99.9 -999.9 -9.9 -9.999 -99.9 -99.99 -9.99
2019/08/16 15:06 PDT  -99.99 -99.99   13  215   13 -99.9 -99.9 -999.9 -9.9 -9.999 -99.9 -99.99 -9.99
2019/08/16 15:12 PDT  -99.99 -99.99   12  217   13 -99.9 -99.9 -999.9 -9.9 -9.999 -99.9 -99.99 -9.99
2019/08/16 15:18 PDT  -99.99 -99.99   10  215   12 -99.9 -99.9 -999.9 -9.9 -9.999 -99.9 -99.99 -9.99
2019/08/16 15:24 PDT  -99.99 -99.99   12  216   12 -99.9 -99.9 -999.9 -9.9 -9.999 -99.9 -99.99 -9.99
2019/08/16 15:30 PDT  -99.99 -99.99   12  220   13 -99.9 -99.9 -999.9 -9.9 -9.999 -99.9 -99.99 -9.99
2019/08/16 15:36 PDT  -99.99 -99.99   11  221   12 -99.9 -99.9 -999.9 -9.9 -9.999 -99.9 -99.99 -9.99
2019/08/16 15:42 PDT  -99.99 -99.99   10  221   11 -99.9 -99.9 -999.9 -9.9 -9.999 -99.9 -99.99 -9.99
2019/08/16 15:48 PDT  -99.99 -99.99   11  220   11 -99.9 -99.9 -999.9 -9.9 -9.999 -99.9 -99.99 -9.99
2019/08/16 15:54 PDT  -99.99 -99.99   11  219   12 -99.9 -99.9 -999.9 -9.9 -9.999 -99.9 -99.99 -9.99
2019/08/16 16:00 PDT  -99.99 -99.99   11  220   12 -99.9 -99.9 -999.9 -9.9 -9.999 -99.9 -99.99 -9.99
2019/08/16 16:06 PDT  -99.99 -99.99   11  217   11 -99.9 -99.9 -999.9 -9.9 -9.999 -99.9 -99.99 -9.99
2019/08/16 16:12 PDT  -99.99 -99.99   11  217   12 -99.9 -99.9 -999.9 -9.9 -9.999 -99.9 -99.99 -9.99
2019/08/16 16:18 PDT  -99.99 -99.99   11  224   13 -99.9 -99.9 -999.9 -9.9 -9.999 -99.9 -99.99 -9.99
2019/08/16 16:24 PDT  -99.99 -99.99   10  227   12 -99.9 -99.9 -999.9 -9.9 -9.999 -99.9 -99.99 -9.99
2019/08/16 16:30 PDT  -99.99 -99.99    9  226   10 -99.9 -99.9 -999.9 -9.9 -9.999 -99.9 -99.99 -9.99
2019/08/16 16:36 PDT  -99.99 -99.99    8  222   10 -99.9 -99.9 -999.9 -9.9 -9.999 -99.9 -99.99 -9.99
2019/08/16 16:42 PDT  -99.99 -99.99   10  222   11 -99.9 -99.9 -999.9 -9.9 -9.999 -99.9 -99.99 -9.99
2019/08/16 16:48 PDT  -99.99 -99.99   10  225   12 -99.9 -99.9 -999.9 -9.9 -9.999 -99.9 -99.99 -9.99
2019/08/16 16:54 PDT  -99.99 -99.99   10  227   12 -99.9 -99.9 -999.9 -9.9 -9.999 -99.9 -99.99 -9.99
2019/08/16 17:00 PDT  -99.99 -99.99   10  226   12 -99.9 -99.9 -999.9 -9.9 -9.999 -99.9 -99.99 -9.99
2019/08/16 17:06 PDT  -99.99 -99.99   10  230   12 -99.9 -99.9 -999.9 -9.9 -9.999 -99.9 -99.99 -9.99
2019/08/16 17:12 PDT  -99.99 -99.99    7  231    9 -99.9 -99.9 -999.9 -9.9 -9.999 -99.9 -99.99 -9.99
2019/08/16 17:18 PDT  -99.99 -99.99    7  238    9 -99.9 -99.9 -999.9 -9.9 -9.999 -99.9 -99.99 -9.99
2019/08/16 17:24 PDT  -99.99 -99.99    7  237   10 -99.9 -99.9 -999.9 -9.9 -9.999 -99.9 -99.99 -9.99
2019/08/16 17:30 PDT  -99.99 -99.99    8  237    9 -99.9 -99.9 -999.9 -9.9 -9.999 -99.9 -99.99 -9.99
2019/08/16 17:36 PDT  -99.99 -99.99    7  232    9 -99.9 -99.9 -999.9 -9.9 -9.999 -99.9 -99.99 -9.99
2019/08/16 17:42 PDT  -99.99 -99.99    8  228    9 -99.9 -99.9 -999.9 -9.9 -9.999 -99.9 -99.99 -9.99
2019/08/16 17:48 PDT  -99.99 -99.99    9  225   10 -99.9 -99.9 -999.9 -9.9 -9.999 -99.9 -99.99 -9.99
2019/08/16 17:54 PDT  -99.99 -99.99   11  234   12 -99.9 -99.9 -999.9 -9.9 -9.999 -99.9 -99.99 -9.99
2019/08/16 18:00 PDT  -99.99 -99.99    9  237   11 -99.9 -99.9 -999.9 -9.9 -9.999 -99.9 -99.99 -9.99
2019/08/16 18:06 PDT  -99.99 -99.99    8  241    9 -99.9 -99.9 -999.9 -9.9 -9.999 -99.9 -99.99 -9.99
2019/08/16 18:12 PDT  -99.99 -99.99    8  245   10 -99.9 -99.9 -999.9 -9.9 -9.999 -99.9 -99.99 -9.99
2019/08/16 18:18 PDT  -99.99 -99.99    8  239    9 -99.9 -99.9 -999.9 -9.9 -9.999 -99.9 -99.99 -9.99
2019/08/16 18:24 PDT  -99.99 -99.99    8  237   11 -99.9 -99.9 -999.9 -9.9 -9.999 -99.9 -99.99 -9.99
2019/08/16 18:30 PDT  -99.99 -99.99    8  239   11 -99.9 -99.9 -999.9 -9.9 -9.999 -99.9 -99.99 -9.99
2019/08/16 18:36 PDT  -99.99 -99.99    8  236   10 -99.9 -99.9 -999.9 -9.9 -9.999 -99.9 -99.99 -9.99
2019/08/16 18:42 PDT  -99.99 -99.99    7  237    9 -99.9 -99.9 -999.9 -9.9 -9.999 -99.9 -99.99 -9.99
2019/08/16 18:48 PDT  -99.99 -99.99    9  234   11 -99.9 -99.9 -999.9 -9.9 -9.999 -99.9 -99.99 -9.99
2019/08/16 18:54 PDT  -99.99 -99.99    8  238   11 -99.9 -99.9 -999.9 -9.9 -9.999 -99.9 -99.99 -9.99
2019/08/16 19:00 PDT  -99.99 -99.99    7  237   10 -99.9 -99.9 -999.9 -9.9 -9.999 -99.9 -99.99 -9.99
2019/08/16 19:06 PDT  -99.99 -99.99    8  237   10 -99.9 -99.9 -999.9 -9.9 -9.999 -99.9 -99.99 -9.99
2019/08/16 19:12 PDT  -99.99 -99.99    7  238    9 -99.9 -99.9 -999.9 -9.9 -9.999 -99.9 -99.99 -9.99
2019/08/16 19:18 PDT  -99.99 -99.99    8  241    9 -99.9 -99.9 -999.9 -9.9 -9.999 -99.9 -99.99 -9.99
2019/08/16 19:24 PDT  -99.99 -99.99    7  240    9 -99.9 -99.9 -999.9 -9.9 -9.999 -99.9 -99.99 -9.99
2019/08/16 19:30 PDT  -99.99 -99.99    7  237    9 -99.9 -99.9 -999.9 -9.9 -9.999 -99.9 -99.99 -9.99
2019/08/16 19:36 PDT  -99.99 -99.99    6  242    9 -99.9 -99.9 -999.9 -9.9 -9.999 -99.9 -99.99 -9.99
2019/08/16 19:42 PDT  -99.99 -99.99    9  233   10 -99.9 -99.9 -999.9 -9.9 -9.999 -99.9 -99.99 -9.99
2019/08/16 19:48 PDT  -99.99 -99.99    7  246   10 -99.9 -99.9 -999.9 -9.9 -9.999 -99.9 -99.99 -9.99
2019/08/16 19:54 PDT  -99.99 -99.99    8  247    9 -99.9 -99.9 -999.9 -9.9 -9.999 -99.9 -99.99 -9.99
2019/08/16 20:00 PDT  -99.99 -99.99    7  248   10 -99.9 -99.9 -999.9 -9.9 -9.999 -99.9 -99.99 -9.99
2019/08/16 20:06 PDT  -99.99 -99.99    6  249    8 -99.9 -99.9 -999.9 -9.9 -9.999 -99.9 -99.99 -9.99
2019/08/16 20:12 PDT  -99.99 -99.99    6  240    7 -99.9 -99.9 -999.9 -9.9 -9.999 -99.9 -99.99 -9.99
2019/08/16 20:18 PDT  -99.99 -99.99    6  244    7 -99.9 -99.9 -999.9 -9.9 -9.999 -99.9 -99.99 -9.99
2019/08/16 20:24 PDT  -99.99 -99.99    5  243    7 -99.9 -99.9 -999.9 -9.9 -9.999 -99.9 -99.99 -9.99
2019/08/16 20:30 PDT  -99.99 -99.99    5  236    6 -99.9 -99.9 -999.9 -9.9 -9.999 -99.9 -99.99 -9.99
2019/08/16 20:36 PDT  -99.99 -99.99    4  239    6 -99.9 -99.9 -999.9 -9.9 -9.999 -99.9 -99.99 -9.99
2019/08/16 20:42 PDT  -99.99 -99.99    4  240    5 -99.9 -99.9 -999.9 -9.9 -9.999 -99.9 -99.99 -9.99
2019/08/16 20:48 PDT  -99.99 -99.99    4  230    5 -99.9 -99.9 -999.9 -9.9 -9.999 -99.9 -99.99 -9.99
2019/08/16 20:54 PDT  -99.99 -99.99    5  228    6 -99.9 -99.9 -999.9 -9.9 -9.999 -99.9 -99.99 -9.99
2019/08/16 21:00 PDT  -99.99 -99.99    4  231    5 -99.9 -99.9 -999.9 -9.9 -9.999 -99.9 -99.99 -9.99
2019/08/16 21:06 PDT  -99.99 -99.99    4  225    5 -99.9 -99.9 -999.9 -9.9 -9.999 -99.9 -99.99 -9.99
2019/08/16 21:12 PDT  -99.99 -99.99    6  219    7 -99.9 -99.9 -999.9 -9.9 -9.999 -99.9 -99.99 -9.99
2019/08/16 21:18 PDT  -99.99 -99.99    7  218    8 -99.9 -99.9 -999.9 -9.9 -9.999 -99.9 -99.99 -9.99
2019/08/16 21:24 PDT  -99.99 -99.99    7  218    9 -99.9 -99.9 -999.9 -9.9 -9.999 -99.9 -99.99 -9.99
2019/08/16 21:30 PDT  -99.99 -99.99    7  214    8 -99.9 -99.9 -999.9 -9.9 -9.999 -99.9 -99.99 -9.99
2019/08/16 21:36 PDT  -99.99 -99.99    7  216    8 -99.9 -99.9 -999.9 -9.9 -9.999 -99.9 -99.99 -9.99
2019/08/16 21:42 PDT  -99.99 -99.99    7  213    8 -99.9 -99.9 -999.9 -9.9 -9.999 -99.9 -99.99 -9.99
2019/08/16 21:48 PDT  -99.99 -99.99    7  219    8 -99.9 -99.9 -999.9 -9.9 -9.999 -99.9 -99.99 -9.99
2019/08/16 21:54 PDT  -99.99 -99.99    7  229    8 -99.9 -99.9 -999.9 -9.9 -9.999 -99.9 -99.99 -9.99
2019/08/16 22:00 PDT  -99.99 -99.99    7  225    8 -99.9 -99.9 -999.9 -9.9 -9.999 -99.9 -99.99 -9.99
2019/08/16 22:06 PDT  -99.99 -99.99    6  221    7 -99.9 -99.9 -999.9 -9.9 -9.999 -99.9 -99.99 -9.99
2019/08/16 22:12 PDT  -99.99 -99.99    6  218    7 -99.9 -99.9 -999.9 -9.9 -9.999 -99.9 -99.99 -9.99
2019/08/16 22:18 PDT  -99.99 -99.99    7  213    8 -99.9 -99.9 -999.9 -9.9 -9.999 -99.9 -99.99 -9.99
2019/08/16 22:24 PDT  -99.99 -99.99    7  214    8 -99.9 -99.9 -999.9 -9.9 -9.999 -99.9 -99.99 -9.99
2019/08/16 22:30 PDT  -99.99 -99.99    6  212    7 -99.9 -99.9 -999.9 -9.9 -9.999 -99.9 -99.99 -9.99
2019/08/16 22:36 PDT  -99.99 -99.99    6  206    6 -99.9 -99.9 -999.9 -9.9 -9.999 -99.9 -99.99 -9.99
2019/08/16 22:42 PDT  -99.99 -99.99    6  207    6 -99.9 -99.9 -999.9 -9.9 -9.999 -99.9 -99.99 -9.99
2019/08/16 22:48 PDT  -99.99 -99.99    6  205    7 -99.9 -99.9 -999.9 -9.9 -9.999 -99.9 -99.99 -9.99
2019/08/16 22:54 PDT  -99.99 -99.99    6  200    7 -99.9 -99.9 -999.9 -9.9 -9.999 -99.9 -99.99 -9.99
2019/08/16 23:00 PDT  -99.99 -99.99    5  191    6 -99.9 -99.9 -999.9 -9.9 -9.999 -99.9 -99.99 -9.99
2019/08/16 23:06 PDT  -99.99 -99.99    5  192    6 -99.9 -99.9 -999.9 -9.9 -9.999 -99.9 -99.99 -9.99
2019/08/16 23:12 PDT  -99.99 -99.99    4  186    6 -99.9 -99.9 -999.9 -9.9 -9.999 -99.9 -99.99 -9.99
2019/08/16 23:18 PDT  -99.99 -99.99    5  148    7 -99.9 -99.9 -999.9 -9.9 -9.999 -99.9 -99.99 -9.99
2019/08/16 23:24 PDT  -99.99 -99.99    3   88    6 -99.9 -99.9 -999.9 -9.9 -9.999 -99.9 -99.99 -9.99
2019/08/16 23:30 PDT  -99.99 -99.99    3  135    5 -99.9 -99.9 -999.9 -9.9 -9.999 -99.9 -99.99 -9.99
2019/08/16 23:36 PDT  -99.99 -99.99    3  181    5 -99.9 -99.9 -999.9 -9.9 -9.999 -99.9 -99.99 -9.99
2019/08/16 23:42 PDT  -99.99 -99.99    2  196    4 -99.9 -99.9 -999.9 -9.9 -9.999 -99.9 -99.99 -9.99
2019/08/16 23:48 PDT  -99.99 -99.99    2  180    3 -99.9 -99.9 -999.9 -9.9 -9.999 -99.9 -99.99 -9.99
2019/08/16 23:54 PDT  -99.99 -99.99    2  228    3 -99.9 -99.9 -999.9 -9.9 -9.999 -99.9 -99.99 -9.99
2019/08/17 00:00 PDT  -99.99 -99.99    2  202    3 -99.9 -99.9 -999.9 -9.9 -9.999 -99.9 -99.99 -9.99
2019/08/17 00:06 PDT  -99.99 -99.99    2  163    3 -99.9 -99.9 -999.9 -9.9 -9.999 -99.9 -99.99 -9.99
2019/08/17 00:12 PDT  -99.99 -99.99    3  164    3 -99.9 -99.9 -999.9 -9.9 -9.999 -99.9 -99.99 -9.99
2019/08/17 00:18 PDT  -99.99 -99.99    3  152    4 -99.9 -99.9 -999.9 -9.9 -9.999 -99.9 -99.99 -9.99
2019/08/17 00:24 PDT  -99.99 -99.99    1  146    3 -99.9 -99.9 -999.9 -9.9 -9.999 -99.9 -99.99 -9.99
2019/08/17 00:30 PDT  -99.99 -99.99    2  214    3 -99.9 -99.9 -999.9 -9.9 -9.999 -99.9 -99.99 -9.99
2019/08/17 00:36 PDT  -99.99 -99.99    2  175    3 -99.9 -99.9 -999.9 -9.9 -9.999 -99.9 -99.99 -9.99
2019/08/17 00:42 PDT  -99.99 -99.99    1  151    3 -99.9 -99.9 -999.9 -9.9 -9.999 -99.9 -99.99 -9.99
2019/08/17 00:48 PDT  -99.99 -99.99    3  174    3 -99.9 -99.9 -999.9 -9.9 -9.999 -99.9 -99.99 -9.99
2019/08/17 00:54 PDT  -99.99 -99.99    4  164    6 -99.9 -99.9 -999.9 -9.9 -9.999 -99.9 -99.99 -9.99
2019/08/17 01:00 PDT  -99.99 -99.99    4  123    7 -99.9 -99.9 -999.9 -9.9 -9.999 -99.9 -99.99 -9.99
2019/08/17 01:06 PDT  -99.99 -99.99    2  121    5 -99.9 -99.9 -999.9 -9.9 -9.999 -99.9 -99.99 -9.99
2019/08/17 01:12 PDT  -99.99 -99.99    2  120    3 -99.9 -99.9 -999.9 -9.9 -9.999 -99.9 -99.99 -9.99
2019/08/17 01:18 PDT  -99.99 -99.99    5  131    7 -99.9 -99.9 -999.9 -9.9 -9.999 -99.9 -99.99 -9.99
2019/08/17 01:24 PDT  -99.99 -99.99    6  107    8 -99.9 -99.9 -999.9 -9.9 -9.999 -99.9 -99.99 -9.99
2019/08/17 01:30 PDT  -99.99 -99.99    7  121    8 -99.9 -99.9 -999.9 -9.9 -9.999 -99.9 -99.99 -9.99
2019/08/17 01:36 PDT  -99.99 -99.99    3   97    8 -99.9 -99.9 -999.9 -9.9 -9.999 -99.9 -99.99 -9.99
2019/08/17 01:42 PDT  -99.99 -99.99    4  123    6 -99.9 -99.9 -999.9 -9.9 -9.999 -99.9 -99.99 -9.99
2019/08/17 01:48 PDT  -99.99 -99.99    8  139   10 -99.9 -99.9 -999.9 -9.9 -9.999 -99.9 -99.99 -9.99
2019/08/17 01:54 PDT  -99.99 -99.99    9  141   10 -99.9 -99.9 -999.9 -9.9 -9.999 -99.9 -99.99 -9.99
2019/08/17 02:00 PDT  -99.99 -99.99    6  143    8 -99.9 -99.9 -999.9 -9.9 -9.999 -99.9 -99.99 -9.99
2019/08/17 02:06 PDT  -99.99 -99.99    6  139    8 -99.9 -99.9 -999.9 -9.9 -9.999 -99.9 -99.99 -9.99
2019/08/17 02:12 PDT  -99.99 -99.99    6  133   10 -99.9 -99.9 -999.9 -9.9 -9.999 -99.9 -99.99 -9.99
2019/08/17 02:18 PDT  -99.99 -99.99    4  146   11 -99.9 -99.9 -999.9 -9.9 -9.999 -99.9 -99.99 -9.99
2019/08/17 02:24 PDT  -99.99 -99.99    4  126    6 -99.9 -99.9 -999.9 -9.9 -9.999 -99.9 -99.99 -9.99
2019/08/17 02:30 PDT  -99.99 -99.99    3  126    6 -99.9 -99.9 -999.9 -9.9 -9.999 -99.9 -99.99 -9.99
2019/08/17 02:36 PDT  -99.99 -99.99    6  157    7 -99.9 -99.9 -999.9 -9.9 -9.999 -99.9 -99.99 -9.99
2019/08/17 02:42 PDT  -99.99 -99.99    6  141    8 -99.9 -99.9 -999.9 -9.9 -9.999 -99.9 -99.99 -9.99
2019/08/17 02:48 PDT  -99.99 -99.99    7  160    8 -99.9 -99.9 -999.9 -9.9 -9.999 -99.9 -99.99 -9.99
2019/08/17 02:54 PDT  -99.99 -99.99    8  146   10 -99.9 -99.9 -999.9 -9.9 -9.999 -99.9 -99.99 -9.99
2019/08/17 03:00 PDT  -99.99 -99.99    8  135   10 -99.9 -99.9 -999.9 -9.9 -9.999 -99.9 -99.99 -9.99
2019/08/17 03:06 PDT  -99.99 -99.99    4  140    8 -99.9 -99.9 -999.9 -9.9 -9.999 -99.9 -99.99 -9.99
2019/08/17 03:12 PDT  -99.99 -99.99    4  145    7 -99.9 -99.9 -999.9 -9.9 -9.999 -99.9 -99.99 -9.99
2019/08/17 03:18 PDT  -99.99 -99.99    6  151    9 -99.9 -99.9 -999.9 -9.9 -9.999 -99.9 -99.99 -9.99
2019/08/17 03:24 PDT  -99.99 -99.99    9  120   10 -99.9 -99.9 -999.9 -9.9 -9.999 -99.9 -99.99 -9.99
2019/08/17 03:30 PDT  -99.99 -99.99    4  124    9 -99.9 -99.9 -999.9 -9.9 -9.999 -99.9 -99.99 -9.99
2019/08/17 03:36 PDT  -99.99 -99.99    4  147    5 -99.9 -99.9 -999.9 -9.9 -9.999 -99.9 -99.99 -9.99
2019/08/17 03:42 PDT  -99.99 -99.99    6  143    7 -99.9 -99.9 -999.9 -9.9 -9.999 -99.9 -99.99 -9.99
2019/08/17 03:48 PDT  -99.99 -99.99    7  132    9 -99.9 -99.9 -999.9 -9.9 -9.999 -99.9 -99.99 -9.99
2019/08/17 03:54 PDT  -99.99 -99.99    5  158    9 -99.9 -99.9 -999.9 -9.9 -9.999 -99.9 -99.99 -9.99
2019/08/17 04:00 PDT  -99.99 -99.99    6  154    8 -99.9 -99.9 -999.9 -9.9 -9.999 -99.9 -99.99 -9.99
2019/08/17 04:06 PDT  -99.99 -99.99    4  151    6 -99.9 -99.9 -999.9 -9.9 -9.999 -99.9 -99.99 -9.99
2019/08/17 04:12 PDT  -99.99 -99.99    4  143    6 -99.9 -99.9 -999.9 -9.9 -9.999 -99.9 -99.99 -9.99
2019/08/17 04:18 PDT  -99.99 -99.99    4  124    7 -99.9 -99.9 -999.9 -9.9 -9.999 -99.9 -99.99 -9.99
2019/08/17 04:24 PDT  -99.99 -99.99    7  139    9 -99.9 -99.9 -999.9 -9.9 -9.999 -99.9 -99.99 -9.99
2019/08/17 04:30 PDT  -99.99 -99.99    6  135    9 -99.9 -99.9 -999.9 -9.9 -9.999 -99.9 -99.99 -9.99
2019/08/17 04:36 PDT  -99.99 -99.99    4  153    9 -99.9 -99.9 -999.9 -9.9 -9.999 -99.9 -99.99 -9.99
2019/08/17 04:42 PDT  -99.99 -99.99    8  156   11 -99.9 -99.9 -999.9 -9.9 -9.999 -99.9 -99.99 -9.99
2019/08/17 04:48 PDT  -99.99 -99.99    6  129    8 -99.9 -99.9 -999.9 -9.9 -9.999 -99.9 -99.99 -9.99
2019/08/17 04:54 PDT  -99.99 -99.99    7  152    9 -99.9 -99.9 -999.9 -9.9 -9.999 -99.9 -99.99 -9.99
2019/08/17 05:00 PDT  -99.99 -99.99    5  141    6 -99.9 -99.9 -999.9 -9.9 -9.999 -99.9 -99.99 -9.99
2019/08/17 05:06 PDT  -99.99 -99.99    5  120    7 -99.9 -99.9 -999.9 -9.9 -9.999 -99.9 -99.99 -9.99
2019/08/17 05:12 PDT  -99.99 -99.99    5  120    6 -99.9 -99.9 -999.9 -9.9 -9.999 -99.9 -99.99 -9.99
2019/08/17 05:18 PDT  -99.99 -99.99    4  126    6 -99.9 -99.9 -999.9 -9.9 -9.999 -99.9 -99.99 -9.99
2019/08/17 05:24 PDT  -99.99 -99.99    4  149    6 -99.9 -99.9 -999.9 -9.9 -9.999 -99.9 -99.99 -9.99
2019/08/17 05:30 PDT  -99.99 -99.99    5  148    6 -99.9 -99.9 -999.9 -9.9 -9.999 -99.9 -99.99 -9.99
2019/08/17 05:36 PDT  -99.99 -99.99    4  125    7 -99.9 -99.9 -999.9 -9.9 -9.999 -99.9 -99.99 -9.99
2019/08/17 05:42 PDT  -99.99 -99.99    4  152    6 -99.9 -99.9 -999.9 -9.9 -9.999 -99.9 -99.99 -9.99
2019/08/17 05:48 PDT  -99.99 -99.99    5  160    5 -99.9 -99.9 -999.9 -9.9 -9.999 -99.9 -99.99 -9.99
2019/08/17 05:54 PDT  -99.99 -99.99    3  161    5 -99.9 -99.9 -999.9 -9.9 -9.999 -99.9 -99.99 -9.99
2019/08/17 06:00 PDT  -99.99 -99.99    4  149    5 -99.9 -99.9 -999.9 -9.9 -9.999 -99.9 -99.99 -9.99
2019/08/17 06:06 PDT  -99.99 -99.99    3  160    4 -99.9 -99.9 -999.9 -9.9 -9.999 -99.9 -99.99 -9.99
2019/08/17 06:12 PDT  -99.99 -99.99    4  148    4 -99.9 -99.9 -999.9 -9.9 -9.999 -99.9 -99.99 -9.99
2019/08/17 06:18 PDT  -99.99 -99.99    3  162    4 -99.9 -99.9 -999.9 -9.9 -9.999 -99.9 -99.99 -9.99
2019/08/17 06:24 PDT  -99.99 -99.99    3  161    3 -99.9 -99.9 -999.9 -9.9 -9.999 -99.9 -99.99 -9.99
2019/08/17 06:30 PDT  -99.99 -99.99    4  173    5 -99.9 -99.9 -999.9 -9.9 -9.999 -99.9 -99.99 -9.99
2019/08/17 06:36 PDT  -99.99 -99.99    4  176    4 -99.9 -99.9 -999.9 -9.9 -9.999 -99.9 -99.99 -9.99
2019/08/17 06:42 PDT  -99.99 -99.99    4  185    5 -99.9 -99.9 -999.9 -9.9 -9.999 -99.9 -99.99 -9.99
2019/08/17 06:48 PDT  -99.99 -99.99    4  174    7 -99.9 -99.9 -999.9 -9.9 -9.999 -99.9 -99.99 -9.99
2019/08/17 06:54 PDT  -99.99 -99.99    5  167    5 -99.9 -99.9 -999.9 -9.9 -9.999 -99.9 -99.99 -9.99
2019/08/17 07:00 PDT  -99.99 -99.99    5  147    7 -99.9 -99.9 -999.9 -9.9 -9.999 -99.9 -99.99 -9.99
2019/08/17 07:06 PDT  -99.99 -99.99    7  143    9 -99.9 -99.9 -999.9 -9.9 -9.999 -99.9 -99.99 -9.99
2019/08/17 07:12 PDT  -99.99 -99.99    5  109    8 -99.9 -99.9 -999.9 -9.9 -9.999 -99.9 -99.99 -9.99
2019/08/17 07:18 PDT  -99.99 -99.99    6  124    9 -99.9 -99.9 -999.9 -9.9 -9.999 -99.9 -99.99 -9.99
2019/08/17 07:24 PDT  -99.99 -99.99    6  144    9 -99.9 -99.9 -999.9 -9.9 -9.999 -99.9 -99.99 -9.99
2019/08/17 07:30 PDT  -99.99 -99.99    6  133    9 -99.9 -99.9 -999.9 -9.9 -9.999 -99.9 -99.99 -9.99
2019/08/17 07:36 PDT  -99.99 -99.99    5  138    6 -99.9 -99.9 -999.9 -9.9 -9.999 -99.9 -99.99 -9.99
2019/08/17 07:42 PDT  -99.99 -99.99    7  115    9 -99.9 -99.9 -999.9 -9.9 -9.999 -99.9 -99.99 -9.99
2019/08/17 07:48 PDT  -99.99 -99.99    6  126    7 -99.9 -99.9 -999.9 -9.9 -9.999 -99.9 -99.99 -9.99
2019/08/17 07:54 PDT  -99.99 -99.99    6  137    7 -99.9 -99.9 -999.9 -9.9 -9.999 -99.9 -99.99 -9.99
2019/08/17 08:00 PDT  -99.99 -99.99    7  136    9 -99.9 -99.9 -999.9 -9.9 -9.999 -99.9 -99.99 -9.99
2019/08/17 08:06 PDT  -99.99 -99.99    5  143    8 -99.9 -99.9 -999.9 -9.9 -9.999 -99.9 -99.99 -9.99
2019/08/17 08:12 PDT  -99.99 -99.99    4  144    5 -99.9 -99.9 -999.9 -9.9 -9.999 -99.9 -99.99 -9.99
2019/08/17 08:18 PDT  -99.99 -99.99    5  145    5 -99.9 -99.9 -999.9 -9.9 -9.999 -99.9 -99.99 -9.99
2019/08/17 08:24 PDT  -99.99 -99.99    4  144    4 -99.9 -99.9 -999.9 -9.9 -9.999 -99.9 -99.99 -9.99
2019/08/17 08:30 PDT  -99.99 -99.99    4  160    4 -99.9 -99.9 -999.9 -9.9 -9.999 -99.9 -99.99 -9.99
2019/08/17 08:36 PDT  -99.99 -99.99    4  163    5 -99.9 -99.9 -999.9 -9.9 -9.999 -99.9 -99.99 -9.99
2019/08/17 08:42 PDT  -99.99 -99.99    4  154    4 -99.9 -99.9 -999.9 -9.9 -9.999 -99.9 -99.99 -9.99
2019/08/17 08:48 PDT  -99.99 -99.99    3  162    4 -99.9 -99.9 -999.9 -9.9 -9.999 -99.9 -99.99 -9.99
2019/08/17 08:54 PDT  -99.99 -99.99    4  178    4 -99.9 -99.9 -999.9 -9.9 -9.999 -99.9 -99.99 -9.99
2019/08/17 09:00 PDT  -99.99 -99.99    3  170    4 -99.9 -99.9 -999.9 -9.9 -9.999 -99.9 -99.99 -9.99
2019/08/17 09:06 PDT  -99.99 -99.99    4  148    4 -99.9 -99.9 -999.9 -9.9 -9.999 -99.9 -99.99 -9.99
2019/08/17 09:12 PDT  -99.99 -99.99    4  162    5 -99.9 -99.9 -999.9 -9.9 -9.999 -99.9 -99.99 -9.99
2019/08/17 09:18 PDT  -99.99 -99.99    5  154    7 -99.9 -99.9 -999.9 -9.9 -9.999 -99.9 -99.99 -9.99
2019/08/17 09:24 PDT  -99.99 -99.99    5  159    6 -99.9 -99.9 -999.9 -9.9 -9.999 -99.9 -99.99 -9.99
2019/08/17 09:30 PDT  -99.99 -99.99    4  160    5 -99.9 -99.9 -999.9 -9.9 -9.999 -99.9 -99.99 -9.99
2019/08/17 09:36 PDT  -99.99 -99.99    4  151    5 -99.9 -99.9 -999.9 -9.9 -9.999 -99.9 -99.99 -9.99
2019/08/17 09:42 PDT  -99.99 -99.99    4  157    5 -99.9 -99.9 -999.9 -9.9 -9.999 -99.9 -99.99 -9.99
2019/08/17 09:48 PDT  -99.99 -99.99    4  158    5 -99.9 -99.9 -999.9 -9.9 -9.999 -99.9 -99.99 -9.99
2019/08/17 09:54 PDT  -99.99 -99.99    4  159    5 -99.9 -99.9 -999.9 -9.9 -9.999 -99.9 -99.99 -9.99
2019/08/17 10:00 PDT  -99.99 -99.99    3  156    4 -99.9 -99.9 -999.9 -9.9 -9.999 -99.9 -99.99 -9.99
2019/08/17 10:06 PDT  -99.99 -99.99    3  165    4 -99.9 -99.9 -999.9 -9.9 -9.999 -99.9 -99.99 -9.99
2019/08/17 10:12 PDT  -99.99 -99.99    3  181    4 -99.9 -99.9 -999.9 -9.9 -9.999 -99.9 -99.99 -9.99
2019/08/17 10:18 PDT  -99.99 -99.99    6  166    6 -99.9 -99.9 -999.9 -9.9 -9.999 -99.9 -99.99 -9.99
2019/08/17 10:24 PDT  -99.99 -99.99    5  164    6 -99.9 -99.9 -999.9 -9.9 -9.999 -99.9 -99.99 -9.99
2019/08/17 10:30 PDT  -99.99 -99.99    6  164    6 -99.9 -99.9 -999.9 -9.9 -9.999 -99.9 -99.99 -9.99
2019/08/17 10:36 PDT  -99.99 -99.99    6  161    7 -99.9 -99.9 -999.9 -9.9 -9.999 -99.9 -99.99 -9.99
2019/08/17 10:42 PDT  -99.99 -99.99    6  164    7 -99.9 -99.9 -999.9 -9.9 -9.999 -99.9 -99.99 -9.99
2019/08/17 10:48 PDT  -99.99 -99.99    7  163    8 -99.9 -99.9 -999.9 -9.9 -9.999 -99.9 -99.99 -9.99
2019/08/17 10:54 PDT  -99.99 -99.99    7  166    8 -99.9 -99.9 -999.9 -9.9 -9.999 -99.9 -99.99 -9.99
2019/08/17 11:00 PDT  -99.99 -99.99    6  169    7 -99.9 -99.9 -999.9 -9.9 -9.999 -99.9 -99.99 -9.99
2019/08/17 11:06 PDT  -99.99 -99.99    5  169    7 -99.9 -99.9 -999.9 -9.9 -9.999 -99.9 -99.99 -9.99
2019/08/17 11:12 PDT  -99.99 -99.99    5  161    6 -99.9 -99.9 -999.9 -9.9 -9.999 -99.9 -99.99 -9.99
2019/08/17 11:18 PDT  -99.99 -99.99    6  160    6 -99.9 -99.9 -999.9 -9.9 -9.999 -99.9 -99.99 -9.99
2019/08/17 11:24 PDT  -99.99 -99.99    6  167    6 -99.9 -99.9 -999.9 -9.9 -9.999 -99.9 -99.99 -9.99
2019/08/17 11:30 PDT  -99.99 -99.99    8  177    9 -99.9 -99.9 -999.9 -9.9 -9.999 -99.9 -99.99 -9.99
2019/08/17 11:36 PDT  -99.99 -99.99    8  186   10 -99.9 -99.9 -999.9 -9.9 -9.999 -99.9 -99.99 -9.99
2019/08/17 11:42 PDT  -99.99 -99.99    7  169    8 -99.9 -99.9 -999.9 -9.9 -9.999 -99.9 -99.99 -9.99
2019/08/17 11:48 PDT  -99.99 -99.99    8  174    8 -99.9 -99.9 -999.9 -9.9 -9.999 -99.9 -99.99 -9.99
2019/08/17 11:54 PDT  -99.99 -99.99    7  177    7 -99.9 -99.9 -999.9 -9.9 -9.999 -99.9 -99.99 -9.99
2019/08/17 12:00 PDT  -99.99 -99.99    7  174    8 -99.9 -99.9 -999.9 -9.9 -9.999 -99.9 -99.99 -9.99
2019/08/17 12:06 PDT  -99.99 -99.99    6  178    7 -99.9 -99.9 -999.9 -9.9 -9.999 -99.9 -99.99 -9.99
2019/08/17 12:12 PDT  -99.99 -99.99    6  178    6 -99.9 -99.9 -999.9 -9.9 -9.999 -99.9 -99.99 -9.99
2019/08/17 12:18 PDT  -99.99 -99.99    7  180    7 -99.9 -99.9 -999.9 -9.9 -9.999 -99.9 -99.99 -9.99
2019/08/17 12:24 PDT  -99.99 -99.99    7  177    7 -99.9 -99.9 -999.9 -9.9 -9.999 -99.9 -99.99 -9.99
2019/08/17 12:30 PDT  -99.99 -99.99    8  174    9 -99.9 -99.9 -999.9 -9.9 -9.999 -99.9 -99.99 -9.99
2019/08/17 12:36 PDT  -99.99 -99.99    8  171    9 -99.9 -99.9 -999.9 -9.9 -9.999 -99.9 -99.99 -9.99
2019/08/17 12:42 PDT  -99.99 -99.99    9  179   10 -99.9 -99.9 -999.9 -9.9 -9.999 -99.9 -99.99 -9.99
2019/08/17 12:48 PDT  -99.99 -99.99    9  179   10 -99.9 -99.9 -999.9 -9.9 -9.999 -99.9 -99.99 -9.99
2019/08/17 12:54 PDT  -99.99 -99.99    8  183    9 -99.9 -99.9 -999.9 -9.9 -9.999 -99.9 -99.99 -9.99
2019/08/17 13:00 PDT  -99.99 -99.99    8  190    9 -99.9 -99.9 -999.9 -9.9 -9.999 -99.9 -99.99 -9.99
2019/08/17 13:06 PDT  -99.99 -99.99    8  197    9 -99.9 -99.9 -999.9 -9.9 -9.999 -99.9 -99.99 -9.99
2019/08/17 13:12 PDT  -99.99 -99.99    8  196    9 -99.9 -99.9 -999.9 -9.9 -9.999 -99.9 -99.99 -9.99
2019/08/17 13:18 PDT  -99.99 -99.99    8  200    9 -99.9 -99.9 -999.9 -9.9 -9.999 -99.9 -99.99 -9.99
2019/08/17 13:24 PDT  -99.99 -99.99    8  200    9 -99.9 -99.9 -999.9 -9.9 -9.999 -99.9 -99.99 -9.99
2019/08/17 13:30 PDT  -99.99 -99.99    8  204    9 -99.9 -99.9 -999.9 -9.9 -9.999 -99.9 -99.99 -9.99
2019/08/17 13:36 PDT  -99.99 -99.99    7  203    9 -99.9 -99.9 -999.9 -9.9 -9.999 -99.9 -99.99 -9.99
2019/08/17 13:42 PDT  -99.99 -99.99    7  204    8 -99.9 -99.9 -999.9 -9.9 -9.999 -99.9 -99.99 -9.99
2019/08/17 13:48 PDT  -99.99 -99.99    7  209    8 -99.9 -99.9 -999.9 -9.9 -9.999 -99.9 -99.99 -9.99
2019/08/17 13:54 PDT  -99.99 -99.99    8  211    9 -99.9 -99.9 -999.9 -9.9 -9.999 -99.9 -99.99 -9.99
2019/08/17 14:00 PDT  -99.99 -99.99    8  215    9 -99.9 -99.9 -999.9 -9.9 -9.999 -99.9 -99.99 -9.99
2019/08/17 14:06 PDT  -99.99 -99.99    8  214    9 -99.9 -99.9 -999.9 -9.9 -9.999 -99.9 -99.99 -9.99
2019/08/17 14:12 PDT  -99.99 -99.99    9  213   10 -99.9 -99.9 -999.9 -9.9 -9.999 -99.9 -99.99 -9.99
2019/08/17 14:18 PDT  -99.99 -99.99    9  208   10 -99.9 -99.9 -999.9 -9.9 -9.999 -99.9 -99.99 -9.99
2019/08/17 14:24 PDT  -99.99 -99.99    9  211    9 -99.9 -99.9 -999.9 -9.9 -9.999 -99.9 -99.99 -9.99
2019/08/17 14:30 PDT  -99.99 -99.99    9  216   10 -99.9 -99.9 -999.9 -9.9 -9.999 -99.9 -99.99 -9.99
2019/08/17 14:36 PDT  -99.99 -99.99    9  214   10 -99.9 -99.9 -999.9 -9.9 -9.999 -99.9 -99.99 -9.99
2019/08/17 14:42 PDT  -99.99 -99.99    9  213   10 -99.9 -99.9 -999.9 -9.9 -9.999 -99.9 -99.99 -9.99
2019/08/17 14:48 PDT  -99.99 -99.99    9  213   10 -99.9 -99.9 -999.9 -9.9 -9.999 -99.9 -99.99 -9.99
2019/08/17 14:54 PDT  -99.99 -99.99    9  219   10 -99.9 -99.9 -999.9 -9.9 -9.999 -99.9 -99.99 -9.99
2019/08/17 15:00 PDT  -99.99 -99.99   10  217   11 -99.9 -99.9 -999.9 -9.9 -9.999 -99.9 -99.99 -9.99
2019/08/17 15:06 PDT  -99.99 -99.99   10  218   11 -99.9 -99.9 -999.9 -9.9 -9.999 -99.9 -99.99 -9.99
2019/08/17 15:12 PDT  -99.99 -99.99   11  221   11 -99.9 -99.9 -999.9 -9.9 -9.999 -99.9 -99.99 -9.99
2019/08/17 15:18 PDT  -99.99 -99.99   10  218   11 -99.9 -99.9 -999.9 -9.9 -9.999 -99.9 -99.99 -9.99
2019/08/17 15:24 PDT  -99.99 -99.99   11  220   12 -99.9 -99.9 -999.9 -9.9 -9.999 -99.9 -99.99 -9.99
2019/08/17 15:30 PDT  -99.99 -99.99   10  218   12 -99.9 -99.9 -999.9 -9.9 -9.999 -99.9 -99.99 -9.99
2019/08/17 15:36 PDT  -99.99 -99.99   11  218   13 -99.9 -99.9 -999.9 -9.9 -9.999 -99.9 -99.99 -9.99
2019/08/17 15:42 PDT  -99.99 -99.99   11  215   12 -99.9 -99.9 -999.9 -9.9 -9.999 -99.9 -99.99 -9.99
2019/08/17 15:48 PDT  -99.99 -99.99   11  216   12 -99.9 -99.9 -999.9 -9.9 -9.999 -99.9 -99.99 -9.99
2019/08/17 15:54 PDT  -99.99 -99.99   13  218   13 -99.9 -99.9 -999.9 -9.9 -9.999 -99.9 -99.99 -9.99
2019/08/17 16:00 PDT  -99.99 -99.99   12  221   13 -99.9 -99.9 -999.9 -9.9 -9.999 -99.9 -99.99 -9.99
2019/08/17 16:06 PDT  -99.99 -99.99   13  221   14 -99.9 -99.9 -999.9 -9.9 -9.999 -99.9 -99.99 -9.99
2019/08/17 16:12 PDT  -99.99 -99.99   13  222   14 -99.9 -99.9 -999.9 -9.9 -9.999 -99.9 -99.99 -9.99
2019/08/17 16:18 PDT  -99.99 -99.99   12  221   13 -99.9 -99.9 -999.9 -9.9 -9.999 -99.9 -99.99 -9.99
2019/08/17 16:24 PDT  -99.99 -99.99   12  221   13 -99.9 -99.9 -999.9 -9.9 -9.999 -99.9 -99.99 -9.99
2019/08/17 16:30 PDT  -99.99 -99.99   13  220   14 -99.9 -99.9 -999.9 -9.9 -9.999 -99.9 -99.99 -9.99
2019/08/17 16:36 PDT  -99.99 -99.99   13  222   14 -99.9 -99.9 -999.9 -9.9 -9.999 -99.9 -99.99 -9.99
2019/08/17 16:42 PDT  -99.99 -99.99   12  220   14 -99.9 -99.9 -999.9 -9.9 -9.999 -99.9 -99.99 -9.99
2019/08/17 16:48 PDT  -99.99 -99.99   11  222   13 -99.9 -99.9 -999.9 -9.9 -9.999 -99.9 -99.99 -9.99
2019/08/17 16:54 PDT  -99.99 -99.99   11  223   13 -99.9 -99.9 -999.9 -9.9 -9.999 -99.9 -99.99 -9.99
2019/08/17 17:00 PDT  -99.99 -99.99   12  221   13 -99.9 -99.9 -999.9 -9.9 -9.999 -99.9 -99.99 -9.99
2019/08/17 17:06 PDT  -99.99 -99.99   13  224   14 -99.9 -99.9 -999.9 -9.9 -9.999 -99.9 -99.99 -9.99
2019/08/17 17:12 PDT  -99.99 -99.99   12  227   13 -99.9 -99.9 -999.9 -9.9 -9.999 -99.9 -99.99 -9.99
2019/08/17 17:18 PDT  -99.99 -99.99   11  224   13 -99.9 -99.9 -999.9 -9.9 -9.999 -99.9 -99.99 -9.99
2019/08/17 17:24 PDT  -99.99 -99.99   11  227   13 -99.9 -99.9 -999.9 -9.9 -9.999 -99.9 -99.99 -9.99
2019/08/17 17:30 PDT  -99.99 -99.99   12  225   13 -99.9 -99.9 -999.9 -9.9 -9.999 -99.9 -99.99 -9.99
2019/08/17 17:36 PDT  -99.99 -99.99   12  230   14 -99.9 -99.9 -999.9 -9.9 -9.999 -99.9 -99.99 -9.99
2019/08/17 17:42 PDT  -99.99 -99.99   11  229   13 -99.9 -99.9 -999.9 -9.9 -9.999 -99.9 -99.99 -9.99
2019/08/17 17:48 PDT  -99.99 -99.99   11  234   12 -99.9 -99.9 -999.9 -9.9 -9.999 -99.9 -99.99 -9.99
2019/08/17 17:54 PDT  -99.99 -99.99   10  232   11 -99.9 -99.9 -999.9 -9.9 -9.999 -99.9 -99.99 -9.99
2019/08/17 18:00 PDT  -99.99 -99.99    8  235   11 -99.9 -99.9 -999.9 -9.9 -9.999 -99.9 -99.99 -9.99
2019/08/17 18:06 PDT  -99.99 -99.99    9  230   10 -99.9 -99.9 -999.9 -9.9 -9.999 -99.9 -99.99 -9.99
2019/08/17 18:12 PDT  -99.99 -99.99    9  234   11 -99.9 -99.9 -999.9 -9.9 -9.999 -99.9 -99.99 -9.99
2019/08/17 18:18 PDT  -99.99 -99.99    9  235   12 -99.9 -99.9 -999.9 -9.9 -9.999 -99.9 -99.99 -9.99
2019/08/17 18:24 PDT  -99.99 -99.99    7  232   10 -99.9 -99.9 -999.9 -9.9 -9.999 -99.9 -99.99 -9.99
2019/08/17 18:30 PDT  -99.99 -99.99    6  235    8 -99.9 -99.9 -999.9 -9.9 -9.999 -99.9 -99.99 -9.99
2019/08/17 18:36 PDT  -99.99 -99.99    6  253    9 -99.9 -99.9 -999.9 -9.9 -9.999 -99.9 -99.99 -9.99
2019/08/17 18:42 PDT  -99.99 -99.99    7  231    9 -99.9 -99.9 -999.9 -9.9 -9.999 -99.9 -99.99 -9.99
2019/08/17 18:48 PDT  -99.99 -99.99    7  225    8 -99.9 -99.9 -999.9 -9.9 -9.999 -99.9 -99.99 -9.99
2019/08/17 18:54 PDT  -99.99 -99.99    8  234    9 -99.9 -99.9 -999.9 -9.9 -9.999 -99.9 -99.99 -9.99
2019/08/17 19:00 PDT  -99.99 -99.99    7  231    8 -99.9 -99.9 -999.9 -9.9 -9.999 -99.9 -99.99 -9.99
2019/08/17 19:06 PDT  -99.99 -99.99    7  233    9 -99.9 -99.9 -999.9 -9.9 -9.999 -99.9 -99.99 -9.99
2019/08/17 19:12 PDT  -99.99 -99.99    5  234    7 -99.9 -99.9 -999.9 -9.9 -9.999 -99.9 -99.99 -9.99
2019/08/17 19:18 PDT  -99.99 -99.99    5  233    6 -99.9 -99.9 -999.9 -9.9 -9.999 -99.9 -99.99 -9.99
2019/08/17 19:24 PDT  -99.99 -99.99    5  242    7 -99.9 -99.9 -999.9 -9.9 -9.999 -99.9 -99.99 -9.99
2019/08/17 19:30 PDT  -99.99 -99.99    4  245    6 -99.9 -99.9 -999.9 -9.9 -9.999 -99.9 -99.99 -9.99
2019/08/17 19:36 PDT  -99.99 -99.99    5  232    6 -99.9 -99.9 -999.9 -9.9 -9.999 -99.9 -99.99 -9.99
2019/08/17 19:42 PDT  -99.99 -99.99    6  232    7 -99.9 -99.9 -999.9 -9.9 -9.999 -99.9 -99.99 -9.99
2019/08/17 19:48 PDT  -99.99 -99.99    5  230    6 -99.9 -99.9 -999.9 -9.9 -9.999 -99.9 -99.99 -9.99
2019/08/17 19:54 PDT  -99.99 -99.99    3  228    7 -99.9 -99.9 -999.9 -9.9 -9.999 -99.9 -99.99 -9.99
2019/08/17 20:00 PDT  -99.99 -99.99    7  231    7 -99.9 -99.9 -999.9 -9.9 -9.999 -99.9 -99.99 -9.99
2019/08/17 20:06 PDT  -99.99 -99.99    7  233    8 -99.9 -99.9 -999.9 -9.9 -9.999 -99.9 -99.99 -9.99
2019/08/17 20:12 PDT  -99.99 -99.99    4  239    6 -99.9 -99.9 -999.9 -9.9 -9.999 -99.9 -99.99 -9.99
2019/08/17 20:18 PDT  -99.99 -99.99    5  242    6 -99.9 -99.9 -999.9 -9.9 -9.999 -99.9 -99.99 -9.99
2019/08/17 20:24 PDT  -99.99 -99.99    5  242    6 -99.9 -99.9 -999.9 -9.9 -9.999 -99.9 -99.99 -9.99
2019/08/17 20:30 PDT  -99.99 -99.99    5  241    6 -99.9 -99.9 -999.9 -9.9 -9.999 -99.9 -99.99 -9.99
2019/08/17 20:36 PDT  -99.99 -99.99    4  232    6 -99.9 -99.9 -999.9 -9.9 -9.999 -99.9 -99.99 -9.99
2019/08/17 20:42 PDT  -99.99 -99.99    6  226    6 -99.9 -99.9 -999.9 -9.9 -9.999 -99.9 -99.99 -9.99
2019/08/17 20:48 PDT  -99.99 -99.99    6  217    8 -99.9 -99.9 -999.9 -9.9 -9.999 -99.9 -99.99 -9.99
2019/08/17 20:54 PDT  -99.99 -99.99    8  225    9 -99.9 -99.9 -999.9 -9.9 -9.999 -99.9 -99.99 -9.99
2019/08/17 21:00 PDT  -99.99 -99.99    7  223    8 -99.9 -99.9 -999.9 -9.9 -9.999 -99.9 -99.99 -9.99
2019/08/17 21:06 PDT  -99.99 -99.99    7  224    7 -99.9 -99.9 -999.9 -9.9 -9.999 -99.9 -99.99 -9.99
2019/08/17 21:12 PDT  -99.99 -99.99    7  227    8 -99.9 -99.9 -999.9 -9.9 -9.999 -99.9 -99.99 -9.99
2019/08/17 21:18 PDT  -99.99 -99.99    6  224    8 -99.9 -99.9 -999.9 -9.9 -9.999 -99.9 -99.99 -9.99
2019/08/17 21:24 PDT  -99.99 -99.99    7  227    8 -99.9 -99.9 -999.9 -9.9 -9.999 -99.9 -99.99 -9.99
2019/08/17 21:30 PDT  -99.99 -99.99    7  222    8 -99.9 -99.9 -999.9 -9.9 -9.999 -99.9 -99.99 -9.99
2019/08/17 21:36 PDT  -99.99 -99.99    6  225    7 -99.9 -99.9 -999.9 -9.9 -9.999 -99.9 -99.99 -9.99
2019/08/17 21:42 PDT  -99.99 -99.99    7  221    7 -99.9 -99.9 -999.9 -9.9 -9.999 -99.9 -99.99 -9.99
2019/08/17 21:48 PDT  -99.99 -99.99    6  227    7 -99.9 -99.9 -999.9 -9.9 -9.999 -99.9 -99.99 -9.99
2019/08/17 21:54 PDT  -99.99 -99.99    6  231    7 -99.9 -99.9 -999.9 -9.9 -9.999 -99.9 -99.99 -9.99
2019/08/17 22:00 PDT  -99.99 -99.99    4  240    6 -99.9 -99.9 -999.9 -9.9 -9.999 -99.9 -99.99 -9.99
2019/08/17 22:06 PDT  -99.99 -99.99    5  239    6 -99.9 -99.9 -999.9 -9.9 -9.999 -99.9 -99.99 -9.99
2019/08/17 22:12 PDT  -99.99 -99.99    5  234    6 -99.9 -99.9 -999.9 -9.9 -9.999 -99.9 -99.99 -9.99
2019/08/17 22:18 PDT  -99.99 -99.99    5  234    5 -99.9 -99.9 -999.9 -9.9 -9.999 -99.9 -99.99 -9.99
2019/08/17 22:24 PDT  -99.99 -99.99    4  242    5 -99.9 -99.9 -999.9 -9.9 -9.999 -99.9 -99.99 -9.99
2019/08/17 22:30 PDT  -99.99 -99.99    2  222    5 -99.9 -99.9 -999.9 -9.9 -9.999 -99.9 -99.99 -9.99
2019/08/17 22:36 PDT  -99.99 -99.99    4  251    5 -99.9 -99.9 -999.9 -9.9 -9.999 -99.9 -99.99 -9.99
2019/08/17 22:42 PDT  -99.99 -99.99    3  236    5 -99.9 -99.9 -999.9 -9.9 -9.999 -99.9 -99.99 -9.99
2019/08/17 22:48 PDT  -99.99 -99.99    2  211    3 -99.9 -99.9 -999.9 -9.9 -9.999 -99.9 -99.99 -9.99
2019/08/17 22:54 PDT  -99.99 -99.99    2  196    3 -99.9 -99.9 -999.9 -9.9 -9.999 -99.9 -99.99 -9.99
2019/08/17 23:00 PDT  -99.99 -99.99    2  165    3 -99.9 -99.9 -999.9 -9.9 -9.999 -99.9 -99.99 -9.99
2019/08/17 23:06 PDT  -99.99 -99.99    2  178    3 -99.9 -99.9 -999.9 -9.9 -9.999 -99.9 -99.99 -9.99
2019/08/17 23:12 PDT  -99.99 -99.99    3  181    3 -99.9 -99.9 -999.9 -9.9 -9.999 -99.9 -99.99 -9.99
2019/08/17 23:18 PDT  -99.99 -99.99    3  185    3 -99.9 -99.9 -999.9 -9.9 -9.999 -99.9 -99.99 -9.99
2019/08/17 23:24 PDT  -99.99 -99.99    3  178    3 -99.9 -99.9 -999.9 -9.9 -9.999 -99.9 -99.99 -9.99
2019/08/17 23:30 PDT  -99.99 -99.99    3  176    3 -99.9 -99.9 -999.9 -9.9 -9.999 -99.9 -99.99 -9.99
2019/08/17 23:36 PDT  -99.99 -99.99    2  170    3 -99.9 -99.9 -999.9 -9.9 -9.999 -99.9 -99.99 -9.99
2019/08/17 23:42 PDT  -99.99 -99.99    2  176    2 -99.9 -99.9 -999.9 -9.9 -9.999 -99.9 -99.99 -9.99
2019/08/17 23:48 PDT  -99.99 -99.99    2  171    2 -99.9 -99.9 -999.9 -9.9 -9.999 -99.9 -99.99 -9.99
2019/08/17 23:54 PDT  -99.99 -99.99    3  158    3 -99.9 -99.9 -999.9 -9.9 -9.999 -99.9 -99.99 -9.99
2019/08/18 00:00 PDT  -99.99 -99.99    2  158    3 -99.9 -99.9 -999.9 -9.9 -9.999 -99.9 -99.99 -9.99
2019/08/18 00:06 PDT  -99.99 -99.99    2  160    2 -99.9 -99.9 -999.9 -9.9 -9.999 -99.9 -99.99 -9.99
2019/08/18 00:12 PDT  -99.99 -99.99    2  181    2 -99.9 -99.9 -999.9 -9.9 -9.999 -99.9 -99.99 -9.99
2019/08/18 00:18 PDT  -99.99 -99.99    1  179    2 -99.9 -99.9 -999.9 -9.9 -9.999 -99.9 -99.99 -9.99
2019/08/18 00:24 PDT  -99.99 -99.99    1  194    2 -99.9 -99.9 -999.9 -9.9 -9.999 -99.9 -99.99 -9.99
2019/08/18 00:30 PDT  -99.99 -99.99    1  218    2 -99.9 -99.9 -999.9 -9.9 -9.999 -99.9 -99.99 -9.99
2019/08/18 00:36 PDT  -99.99 -99.99    1  222    1 -99.9 -99.9 -999.9 -9.9 -9.999 -99.9 -99.99 -9.99
2019/08/18 00:42 PDT  -99.99 -99.99    1  190    2 -99.9 -99.9 -999.9 -9.9 -9.999 -99.9 -99.99 -9.99
2019/08/18 00:48 PDT  -99.99 -99.99    3  199    3 -99.9 -99.9 -999.9 -9.9 -9.999 -99.9 -99.99 -9.99
2019/08/18 00:54 PDT  -99.99 -99.99    1  201    2 -99.9 -99.9 -999.9 -9.9 -9.999 -99.9 -99.99 -9.99
2019/08/18 01:00 PDT  -99.99 -99.99    2  184    2 -99.9 -99.9 -999.9 -9.9 -9.999 -99.9 -99.99 -9.99
2019/08/18 01:06 PDT  -99.99 -99.99    1  171    2 -99.9 -99.9 -999.9 -9.9 -9.999 -99.9 -99.99 -9.99
2019/08/18 01:12 PDT  -99.99 -99.99    1  211    2 -99.9 -99.9 -999.9 -9.9 -9.999 -99.9 -99.99 -9.99
2019/08/18 01:18 PDT  -99.99 -99.99    2  219    2 -99.9 -99.9 -999.9 -9.9 -9.999 -99.9 -99.99 -9.99
2019/08/18 01:24 PDT  -99.99 -99.99    2  222    2 -99.9 -99.9 -999.9 -9.9 -9.999 -99.9 -99.99 -9.99
2019/08/18 01:30 PDT  -99.99 -99.99    1  245    2 -99.9 -99.9 -999.9 -9.9 -9.999 -99.9 -99.99 -9.99
2019/08/18 01:36 PDT  -99.99 -99.99    1  244    2 -99.9 -99.9 -999.9 -9.9 -9.999 -99.9 -99.99 -9.99
2019/08/18 01:42 PDT  -99.99 -99.99    1  242    1 -99.9 -99.9 -999.9 -9.9 -9.999 -99.9 -99.99 -9.99
2019/08/18 01:48 PDT  -99.99 -99.99    0  233    2 -99.9 -99.9 -999.9 -9.9 -9.999 -99.9 -99.99 -9.99
2019/08/18 01:54 PDT  -99.99 -99.99    0  271    0 -99.9 -99.9 -999.9 -9.9 -9.999 -99.9 -99.99 -9.99
2019/08/18 02:00 PDT  -99.99 -99.99    1  206    3 -99.9 -99.9 -999.9 -9.9 -9.999 -99.9 -99.99 -9.99
2019/08/18 02:06 PDT  -99.99 -99.99    1  200    3 -99.9 -99.9 -999.9 -9.9 -9.999 -99.9 -99.99 -9.99
2019/08/18 02:12 PDT  -99.99 -99.99    2  249    3 -99.9 -99.9 -999.9 -9.9 -9.999 -99.9 -99.99 -9.99
2019/08/18 02:18 PDT  -99.99 -99.99    1  272    2 -99.9 -99.9 -999.9 -9.9 -9.999 -99.9 -99.99 -9.99
2019/08/18 02:24 PDT  -99.99 -99.99    1  201    2 -99.9 -99.9 -999.9 -9.9 -9.999 -99.9 -99.99 -9.99
2019/08/18 02:30 PDT  -99.99 -99.99    2  228    3 -99.9 -99.9 -999.9 -9.9 -9.999 -99.9 -99.99 -9.99
2019/08/18 02:36 PDT  -99.99 -99.99    3  231    4 -99.9 -99.9 -999.9 -9.9 -9.999 -99.9 -99.99 -9.99
2019/08/18 02:42 PDT  -99.99 -99.99    2  243    3 -99.9 -99.9 -999.9 -9.9 -9.999 -99.9 -99.99 -9.99
2019/08/18 02:48 PDT  -99.99 -99.99    3  215    4 -99.9 -99.9 -999.9 -9.9 -9.999 -99.9 -99.99 -9.99
2019/08/18 02:54 PDT  -99.99 -99.99    1  213    3 -99.9 -99.9 -999.9 -9.9 -9.999 -99.9 -99.99 -9.99
2019/08/18 03:00 PDT  -99.99 -99.99    0    0    1 -99.9 -99.9 -999.9 -9.9 -9.999 -99.9 -99.99 -9.99
2019/08/18 03:06 PDT  -99.99 -99.99    1  275    1 -99.9 -99.9 -999.9 -9.9 -9.999 -99.9 -99.99 -9.99
2019/08/18 03:12 PDT  -99.99 -99.99    0    0    1 -99.9 -99.9 -999.9 -9.9 -9.999 -99.9 -99.99 -9.99
2019/08/18 03:18 PDT  -99.99 -99.99    0  215    0 -99.9 -99.9 -999.9 -9.9 -9.999 -99.9 -99.99 -9.99
2019/08/18 03:24 PDT  -99.99 -99.99    0  211    0 -99.9 -99.9 -999.9 -9.9 -9.999 -99.9 -99.99 -9.99
2019/08/18 03:30 PDT  -99.99 -99.99    1  179    1 -99.9 -99.9 -999.9 -9.9 -9.999 -99.9 -99.99 -9.99
2019/08/18 03:36 PDT  -99.99 -99.99    1  164    1 -99.9 -99.9 -999.9 -9.9 -9.999 -99.9 -99.99 -9.99
2019/08/18 03:42 PDT  -99.99 -99.99    3  142    3 -99.9 -99.9 -999.9 -9.9 -9.999 -99.9 -99.99 -9.99
2019/08/18 03:48 PDT  -99.99 -99.99    3  163    4 -99.9 -99.9 -999.9 -9.9 -9.999 -99.9 -99.99 -9.99
2019/08/18 03:54 PDT  -99.99 -99.99    3  183    4 -99.9 -99.9 -999.9 -9.9 -9.999 -99.9 -99.99 -9.99
2019/08/18 04:00 PDT  -99.99 -99.99    3  184    3 -99.9 -99.9 -999.9 -9.9 -9.999 -99.9 -99.99 -9.99
2019/08/18 04:06 PDT  -99.99 -99.99    3  180    3 -99.9 -99.9 -999.9 -9.9 -9.999 -99.9 -99.99 -9.99
2019/08/18 04:12 PDT  -99.99 -99.99    2  181    3 -99.9 -99.9 -999.9 -9.9 -9.999 -99.9 -99.99 -9.99
2019/08/18 04:18 PDT  -99.99 -99.99    2  165    3 -99.9 -99.9 -999.9 -9.9 -9.999 -99.9 -99.99 -9.99
2019/08/18 04:24 PDT  -99.99 -99.99    3  138    4 -99.9 -99.9 -999.9 -9.9 -9.999 -99.9 -99.99 -9.99
2019/08/18 04:30 PDT  -99.99 -99.99    3  146    3 -99.9 -99.9 -999.9 -9.9 -9.999 -99.9 -99.99 -9.99
2019/08/18 04:36 PDT  -99.99 -99.99    2  160    3 -99.9 -99.9 -999.9 -9.9 -9.999 -99.9 -99.99 -9.99
2019/08/18 04:42 PDT  -99.99 -99.99    5  148    6 -99.9 -99.9 -999.9 -9.9 -9.999 -99.9 -99.99 -9.99
2019/08/18 04:48 PDT  -99.99 -99.99    6  148    8 -99.9 -99.9 -999.9 -9.9 -9.999 -99.9 -99.99 -9.99
2019/08/18 04:54 PDT  -99.99 -99.99    6  145    7 -99.9 -99.9 -999.9 -9.9 -9.999 -99.9 -99.99 -9.99
2019/08/18 05:00 PDT  -99.99 -99.99    5  143    7 -99.9 -99.9 -999.9 -9.9 -9.999 -99.9 -99.99 -9.99
2019/08/18 05:06 PDT  -99.99 -99.99    6  136    7 -99.9 -99.9 -999.9 -9.9 -9.999 -99.9 -99.99 -9.99
2019/08/18 05:12 PDT  -99.99 -99.99    6  141    7 -99.9 -99.9 -999.9 -9.9 -9.999 -99.9 -99.99 -9.99
2019/08/18 05:18 PDT  -99.99 -99.99    7  136    8 -99.9 -99.9 -999.9 -9.9 -9.999 -99.9 -99.99 -9.99
2019/08/18 05:24 PDT  -99.99 -99.99    9  139    9 -99.9 -99.9 -999.9 -9.9 -9.999 -99.9 -99.99 -9.99
2019/08/18 05:30 PDT  -99.99 -99.99    7  134    9 -99.9 -99.9 -999.9 -9.9 -9.999 -99.9 -99.99 -9.99
2019/08/18 05:36 PDT  -99.99 -99.99    7  126    9 -99.9 -99.9 -999.9 -9.9 -9.999 -99.9 -99.99 -9.99
2019/08/18 05:42 PDT  -99.99 -99.99    7  145    8 -99.9 -99.9 -999.9 -9.9 -9.999 -99.9 -99.99 -9.99
2019/08/18 05:48 PDT  -99.99 -99.99    8  123    9 -99.9 -99.9 -999.9 -9.9 -9.999 -99.9 -99.99 -9.99
2019/08/18 05:54 PDT  -99.99 -99.99    6  125    8 -99.9 -99.9 -999.9 -9.9 -9.999 -99.9 -99.99 -9.99
2019/08/18 06:00 PDT  -99.99 -99.99    6  115    7 -99.9 -99.9 -999.9 -9.9 -9.999 -99.9 -99.99 -9.99
2019/08/18 06:06 PDT  -99.99 -99.99    3   99    8 -99.9 -99.9 -999.9 -9.9 -9.999 -99.9 -99.99 -9.99
2019/08/18 06:12 PDT  -99.99 -99.99    5  111    7 -99.9 -99.9 -999.9 -9.9 -9.999 -99.9 -99.99 -9.99
2019/08/18 06:18 PDT  -99.99 -99.99    8  110    9 -99.9 -99.9 -999.9 -9.9 -9.999 -99.9 -99.99 -9.99
2019/08/18 06:24 PDT  -99.99 -99.99    6  106    8 -99.9 -99.9 -999.9 -9.9 -9.999 -99.9 -99.99 -9.99
2019/08/18 06:30 PDT  -99.99 -99.99    7  110    8 -99.9 -99.9 -999.9 -9.9 -9.999 -99.9 -99.99 -9.99
2019/08/18 06:36 PDT  -99.99 -99.99    5  118    7 -99.9 -99.9 -999.9 -9.9 -9.999 -99.9 -99.99 -9.99
2019/08/18 06:42 PDT  -99.99 -99.99    6  117    8 -99.9 -99.9 -999.9 -9.9 -9.999 -99.9 -99.99 -9.99
2019/08/18 06:48 PDT  -99.99 -99.99    6  113    7 -99.9 -99.9 -999.9 -9.9 -9.999 -99.9 -99.99 -9.99
2019/08/18 06:54 PDT  -99.99 -99.99    5  109    7 -99.9 -99.9 -999.9 -9.9 -9.999 -99.9 -99.99 -9.99
2019/08/18 07:00 PDT  -99.99 -99.99    5   98    7 -99.9 -99.9 -999.9 -9.9 -9.999 -99.9 -99.99 -9.99
2019/08/18 07:06 PDT  -99.99 -99.99    3   93    6 -99.9 -99.9 -999.9 -9.9 -9.999 -99.9 -99.99 -9.99
2019/08/18 07:12 PDT  -99.99 -99.99    4  112    5 -99.9 -99.9 -999.9 -9.9 -9.999 -99.9 -99.99 -9.99
2019/08/18 07:18 PDT  -99.99 -99.99    5  110    6 -99.9 -99.9 -999.9 -9.9 -9.999 -99.9 -99.99 -9.99
2019/08/18 07:24 PDT  -99.99 -99.99    5  109    6 -99.9 -99.9 -999.9 -9.9 -9.999 -99.9 -99.99 -9.99
2019/08/18 07:30 PDT  -99.99 -99.99    5  117    6 -99.9 -99.9 -999.9 -9.9 -9.999 -99.9 -99.99 -9.99
2019/08/18 07:36 PDT  -99.99 -99.99    5  126    8 -99.9 -99.9 -999.9 -9.9 -9.999 -99.9 -99.99 -9.99
2019/08/18 07:42 PDT  -99.99 -99.99    3  101    6 -99.9 -99.9 -999.9 -9.9 -9.999 -99.9 -99.99 -9.99
2019/08/18 07:48 PDT  -99.99 -99.99    4  131    5 -99.9 -99.9 -999.9 -9.9 -9.999 -99.9 -99.99 -9.99
2019/08/18 07:54 PDT  -99.99 -99.99    6  143    7 -99.9 -99.9 -999.9 -9.9 -9.999 -99.9 -99.99 -9.99
2019/08/18 08:00 PDT  -99.99 -99.99    5  138    7 -99.9 -99.9 -999.9 -9.9 -9.999 -99.9 -99.99 -9.99
2019/08/18 08:06 PDT  -99.99 -99.99    6  124    8 -99.9 -99.9 -999.9 -9.9 -9.999 -99.9 -99.99 -9.99
2019/08/18 08:12 PDT  -99.99 -99.99    7  139    8 -99.9 -99.9 -999.9 -9.9 -9.999 -99.9 -99.99 -9.99
2019/08/18 08:18 PDT  -99.99 -99.99    6  137    7 -99.9 -99.9 -999.9 -9.9 -9.999 -99.9 -99.99 -9.99
2019/08/18 08:24 PDT  -99.99 -99.99    7  132    8 -99.9 -99.9 -999.9 -9.9 -9.999 -99.9 -99.99 -9.99
2019/08/18 08:30 PDT  -99.99 -99.99    6  124    8 -99.9 -99.9 -999.9 -9.9 -9.999 -99.9 -99.99 -9.99
2019/08/18 08:36 PDT  -99.99 -99.99    5  128    6 -99.9 -99.9 -999.9 -9.9 -9.999 -99.9 -99.99 -9.99
2019/08/18 08:42 PDT  -99.99 -99.99    6  140    7 -99.9 -99.9 -999.9 -9.9 -9.999 -99.9 -99.99 -9.99
2019/08/18 08:48 PDT  -99.99 -99.99    5  144    9 -99.9 -99.9 -999.9 -9.9 -9.999 -99.9 -99.99 -9.99
2019/08/18 08:54 PDT  -99.99 -99.99 -999 -999 -999 -99.9 -99.9 -999.9 -9.9 -9.999 -99.9 -99.99 -9.99

Revised: 08/08/2018
NOAA / National Ocean Service
Web site owner: Center for Operational Oceanographic Products and Services